                ,  0.671,  0.819,  0.966,  1.114,  1.262,  1.410,  1.558,  1.705,  1.853,  2.001,  2.149,  2.297,  2.445,  2.592,  2.740,  2.888,  3.036,  3.184,  3.331,  3.479,  3.627,  3.775,  3.923,  4.070,  4.218,  4.366,  4.514,  4.662,  4.809,  4.957,  5.105,  5.253,  5.401,  5.549,  5.696,  5.844,  5.992,  6.140,  6.288,  6.435,  6.583,  6.731,  6.879,  7.027,  7.174,  7.322,  7.470,  7.618,  7.766,  7.914,  8.061,  8.209,  8.357,  8.505,  8.653,  8.800,  8.948,  9.096,  9.244,  9.392,  9.539,  9.687,  9.835
2003/04/30 00:00,  999.0,    0.2,   -0.7,   -1.1,   -1.1,    3.4,    4.6,    2.3,   16.1,    4.0,    5.8,   20.3,   21.1,  999.0,   21.8,   16.9,   -7.8,   32.8,   26.0,   -7.5,  999.0,  999.0,  999.0,  999.0,    8.2,   20.5,    9.5,   21.1,   28.4,   28.0,  999.0,  999.0,  999.0,   25.5,   27.6,  999.0,  999.0,  999.0,  999.0,  999.0,   -1.3,  999.0,  999.0,   30.5,  999.0,  999.0,  999.0,  999.0,  999.0,  999.0,  999.0,  999.0,  999.0,  999.0,  999.0,  999.0,  999.0,  999.0,  999.0,  999.0,  999.0,  999.0,  999.0
2003/04/30 00:10,  999.0,   -1.7,   -0.3,    3.3,    3.9,    7.8,    9.5,   12.2,   13.5,   15.9,   22.1,   15.4,  999.0,   21.8,   24.6,   27.3,   31.4,  999.0,   29.1,   25.3,  999.0,  999.0,   29.2,   31.7,   27.9,   27.2,   29.9,   28.8,   29.3,  999.0,  999.0,  999.0,   27.7,   27.6,   28.5,   29.4,   30.1,  999.0,  999.0,  999.0,  999.0,  999.0,  999.0,  999.0,  999.0,  999.0,  999.0,  999.0,  999.0,  999.0,  999.0,  999.0,  999.0,  999.0,  999.0,  999.0,  999.0,  999.0,  999.0,  999.0,  999.0,  999.0,  999.0
2003/04/30 00:20,  999.0,    0.2,    3.6,    0.4,    2.9,    5.6,    9.7,   12.4,   14.2,   17.6,   18.7,   16.3,   21.5,   22.2,   23.8,  999.0,   30.6,   30.5,   27.9,   30.7,   28.6,   27.3,   27.9,  999.0,   26.5,   26.7,   27.1,   27.9,   28.3,   28.6,   29.6,   28.2,   27.7,   27.2,   29.6,   30.5,   30.5,   29.9,   30.5,  999.0,  999.0,  999.0,  999.0,  999.0,  999.0,  999.0,  999.0,  999.0,  999.0,  999.0,  999.0,  999.0,  999.0,  999.0,  999.0,  999.0,  999.0,  999.0,  999.0,  999.0,  999.0,  999.0,  999.0
2003/04/30 00:30,  999.0,   -0.2,   -0.0,  999.0,  999.0,    7.7,    9.1,   12.5,   15.9,   18.2,   19.1,   19.0,   18.8,   21.5,   23.1,   27.6,   29.0,  999.0,  999.0,  999.0,  999.0,   30.7,   28.2,   30.3,   27.1,   26.3,   25.8,   27.5,   28.9,   28.5,   28.2,   27.9,   28.3,   29.2,   30.2,  999.0,  999.0,  999.0,  999.0,  999.0,  999.0,  999.0,  999.0,  999.0,  999.0,  999.0,  999.0,  999.0,  999.0,  999.0,  999.0,  999.0,  999.0,  999.0,  999.0,  999.0,  999.0,  999.0,  999.0,  999.0,  999.0,  999.0,  999.0
2003/04/30 00:40,  999.0,   -0.3,   -0.2,    0.5,    4.5,    8.7,   10.5,   13.7,   16.5,   18.4,   18.2,   17.2,   19.2,   22.8,   29.1,   29.7,  999.0,   31.4,   30.0,   30.0,   29.2,   30.5,   27.6,   26.8,   26.4,   27.2,   26.4,   26.6,   27.5,   28.0,   28.1,   27.9,   27.0,   28.0,   28.7,   28.8,   29.3,   30.1,  999.0,  999.0,  999.0,  999.0,  999.0,  999.0,  999.0,  999.0,  999.0,  999.0,  999.0,  999.0,  999.0,  999.0,  999.0,  999.0,  999.0,  999.0,  999.0,  999.0,  999.0,  999.0,  999.0,  999.0,  999.0
2003/04/30 00:50,  999.0,   -0.6,  999.0,  999.0,    6.3,   10.2,   11.5,   12.6,   11.7,   18.8,   16.9,   16.1,   16.6,   23.3,  999.0,   27.6,   29.8,   25.7,   25.0,   26.1,   23.9,   25.3,   26.7,   27.0,   27.6,   27.0,   29.1,   28.9,   27.0,  999.0,  999.0,   27.3,   26.5,   25.9,   28.1,   28.5,   28.6,   29.1,   29.7,   29.5,   29.3,  999.0,  999.0,  999.0,  999.0,  999.0,  999.0,  999.0,  999.0,  999.0,  999.0,  999.0,  999.0,  999.0,  999.0,  999.0,  999.0,  999.0,  999.0,  999.0,  999.0,  999.0,  999.0
2003/04/30 01:00,  999.0,    0.1,    0.4,  999.0,    6.6,   10.3,   11.6,   15.1,   18.3,   19.8,   20.0,   19.1,   22.8,   23.6,   24.4,   26.6,   26.9,   26.0,   24.7,   25.2,   25.0,   26.1,   25.9,   27.2,   28.7,   26.8,   27.7,   28.9,   28.1,   26.3,   26.3,   25.3,   24.9,   25.6,   26.9,   27.4,   27.6,   28.0,   28.4,   28.8,   29.2,   29.5,   29.7,  999.0,  999.0,  999.0,  999.0,  999.0,  999.0,  999.0,  999.0,  999.0,  999.0,  999.0,  999.0,  999.0,  999.0,  999.0,  999.0,  999.0,  999.0,  999.0,  999.0
2003/04/30 01:10,  999.0,    0.6,    0.9,    0.6,    7.8,    9.6,   12.3,   14.8,   17.4,   20.9,   20.5,   19.3,   19.2,   22.1,   24.0,   28.6,   28.5,   25.6,   27.3,   27.7,   28.2,   27.6,   27.3,   27.7,   27.7,   27.1,   27.1,   26.8,   26.4,   26.0,   25.7,   25.5,   24.9,   26.1,   25.3,   27.9,   28.7,   27.6,   28.3,   28.2,   28.3,   28.2,   28.7,   29.8,   31.2,  999.0,  999.0,  999.0,  999.0,  999.0,  999.0,  999.0,  999.0,  999.0,  999.0,  999.0,  999.0,  999.0,  999.0,  999.0,  999.0,  999.0,  999.0
2003/04/30 01:20,  999.0,    0.4,    0.9,  999.0,  999.0,    9.4,   10.3,   13.5,   16.6,   20.7,   22.3,   20.9,   20.1,   21.9,   25.4,   25.8,   26.4,   26.7,   23.9,   25.3,   26.7,   25.6,   26.0,   26.1,   26.1,   26.3,   26.7,   26.8,   26.7,   26.5,   25.8,   27.4,   28.3,   29.0,   29.1,   28.8,   28.6,   28.6,   28.3,   28.9,   28.9,   29.2,   29.8,   30.2,   30.5,   30.3,  999.0,  999.0,  999.0,  999.0,  999.0,  999.0,   32.1,   32.3,   32.8,   32.2,   32.5,   33.4,   33.8,   34.3,   34.6,   35.1,   35.2
2003/04/30 01:30,  999.0,   -0.5,    0.3,  999.0,  999.0,  999.0,   11.6,   15.5,   19.2,   21.3,   21.4,   20.6,   20.5,   22.3,   25.0,   26.2,   26.8,   25.9,   25.0,   25.8,   25.4,   25.4,   25.6,   26.3,   26.1,   26.2,   26.5,   28.5,   27.3,   28.3,   28.7,   28.3,   28.2,   28.1,   27.9,   27.8,   27.8,   27.9,   28.0,   28.3,   28.6,   29.0,   29.5,   29.7,   29.9,  999.0,  999.0,  999.0,  999.0,  999.0,  999.0,  999.0,  999.0,  999.0,  999.0,   32.0,   32.4,   31.9,   32.9,   32.7,   33.3,   33.4,   33.9
2003/04/30 01:40,  999.0,  999.0,  999.0,  999.0,  999.0,  999.0,   13.3,   16.0,   19.2,   21.6,   21.8,   23.8,   26.4,   28.9,   28.0,   27.4,   27.0,   26.4,   25.4,   25.3,   25.3,   25.8,   24.7,   25.0,   25.6,   27.3,   27.3,   27.4,   27.7,   27.6,   27.4,   27.4,   27.1,   27.1,   27.0,   27.4,   28.3,   29.1,   29.3,   29.3,   29.5,   29.6,   29.9,   29.8,  999.0,  999.0,  999.0,  999.0,  999.0,  999.0,  999.0,  999.0,  999.0,  999.0,  999.0,  999.0,  999.0,  999.0,  999.0,  999.0,  999.0,  999.0,  999.0
2003/04/30 01:50,  999.0,  999.0,  999.0,    3.8,    8.5,    8.1,   11.2,   17.0,   19.1,   21.3,   24.0,   24.1,   23.4,   23.2,   28.6,   27.0,   28.3,   27.9,   28.6,   28.0,   26.8,   26.0,   25.2,   25.0,   25.0,   25.1,   25.5,   25.8,   25.8,   26.4,   26.6,   26.9,   27.1,   27.1,   28.6,   29.1,   28.6,  999.0,  999.0,  999.0,  999.0,  999.0,  999.0,  999.0,  999.0,  999.0,  999.0,  999.0,  999.0,  999.0,  999.0,  999.0,  999.0,  999.0,  999.0,  999.0,  999.0,  999.0,  999.0,  999.0,  999.0,  999.0,  999.0
2003/04/30 02:00,  999.0,   -0.6,    2.4,    4.5,    6.9,    9.8,   12.5,   16.4,   19.1,   21.5,   24.4,   25.7,   24.9,   24.9,   26.1,   27.7,   28.6,   28.5,   28.1,   27.1,   27.1,   26.4,   26.0,   26.0,   26.1,   26.1,   26.5,   27.1,   26.8,   26.9,   27.0,   26.9,   26.9,   27.1,   27.3,   27.8,   28.2,   28.9,  999.0,  999.0,  999.0,  999.0,  999.0,  999.0,  999.0,  999.0,  999.0,  999.0,  999.0,  999.0,  999.0,  999.0,  999.0,  999.0,  999.0,  999.0,  999.0,  999.0,  999.0,  999.0,  999.0,  999.0,  999.0
2003/04/30 02:10,  999.0,   -0.9,    2.1,    4.2,    6.7,    9.0,   12.0,   14.9,   16.9,   19.2,   22.2,   25.3,   24.9,   24.1,   25.2,   27.5,   28.7,   27.6,   25.7,   27.0,   25.8,   25.8,   25.3,   25.7,   26.5,   27.3,   27.8,   27.9,   28.0,   27.9,   28.0,   28.0,   28.0,   28.5,   28.8,   29.4,   29.9,   31.5,  999.0,  999.0,  999.0,  999.0,  999.0,  999.0,  999.0,  999.0,  999.0,  999.0,  999.0,  999.0,  999.0,  999.0,  999.0,  999.0,  999.0,  999.0,  999.0,  999.0,  999.0,  999.0,  999.0,  999.0,  999.0
2003/04/30 02:20,  999.0,  999.0,  999.0,  999.0,    3.9,   10.4,    9.3,   14.7,   18.2,   20.5,   22.4,   22.7,   24.5,   23.9,   22.3,   25.0,   24.4,   25.5,   22.4,   25.5,   25.3,   25.5,   26.6,   26.0,   26.4,   26.9,   27.3,   27.0,   27.0,   26.8,   26.9,   27.3,   28.5,   29.6,   30.9,   32.0,   32.5,   32.9,  999.0,  999.0,  999.0,  999.0,  999.0,  999.0,  999.0,  999.0,  999.0,  999.0,  999.0,  999.0,  999.0,  999.0,  999.0,  999.0,  999.0,  999.0,  999.0,  999.0,  999.0,  999.0,  999.0,  999.0,  999.0
2003/04/30 02:30,  999.0,  999.0,  999.0,  999.0,    4.5,    8.1,   10.1,   14.7,   17.3,   19.6,   22.4,   24.9,   26.5,   26.0,   27.2,   26.1,   28.2,   27.8,   28.6,   28.0,   27.7,   27.3,   26.3,   26.6,   26.9,   28.1,   30.3,   30.3,   30.1,   30.5,   30.9,   31.1,   32.0,   31.8,   31.6,   32.4,   32.8,   33.4,   33.8,   33.3,   33.2,   33.0,   32.1,   33.0,   32.6,   33.9,  999.0,  999.0,  999.0,  999.0,  999.0,  999.0,  999.0,  999.0,  999.0,  999.0,  999.0,  999.0,  999.0,  999.0,  999.0,  999.0,  999.0
2003/04/30 02:40,  999.0,  999.0,  999.0,    5.2,   10.7,   12.4,   13.8,   16.4,   17.1,   20.5,   20.4,   25.6,   28.2,   28.3,   28.4,   29.3,   30.3,   30.1,   29.7,   28.6,   28.0,   26.6,   26.2,   26.4,   28.2,   29.9,   30.7,   31.5,   31.4,   31.8,   32.1,   32.7,   33.2,   33.2,   32.9,   33.2,   33.3,   33.3,   32.9,   33.4,   33.6,   32.8,   33.7,  999.0,  999.0,  999.0,  999.0,  999.0,  999.0,  999.0,  999.0,  999.0,  999.0,  999.0,  999.0,  999.0,  999.0,  999.0,  999.0,  999.0,   33.4,  999.0,  999.0
2003/04/30 02:50,  999.0,   -1.4,    0.3,    3.2,    6.3,    8.5,   11.2,   13.9,   16.4,   18.0,   20.4,   23.4,   25.3,   25.5,   25.9,   27.1,   28.4,   29.5,   29.9,   29.4,   29.1,   28.5,   28.6,   29.2,   29.4,   30.6,   31.1,   31.2,   31.2,   31.5,   31.5,   31.5,   31.8,   32.2,   32.5,   32.6,   32.5,   32.2,   32.0,   32.0,   32.9,   33.8,   34.3,   34.3,   34.5,   34.7,   33.7,   34.1,  999.0,  999.0,  999.0,   35.0,  999.0,  999.0,  999.0,  999.0,  999.0,  999.0,  999.0,  999.0,  999.0,  999.0,  999.0
2003/04/30 03:00,  999.0,   -3.4,   -0.5,    2.9,    5.9,    7.4,    9.6,   12.6,   15.1,   17.1,   19.0,   22.0,   23.5,   24.7,   26.1,   25.7,   26.8,   27.6,   28.8,   29.4,   28.9,   29.6,   30.1,  999.0,  999.0,   30.7,   30.6,   30.5,   30.4,   31.1,   31.9,   32.5,   32.8,   32.7,   31.8,   30.7,   30.3,   30.5,   30.9,   31.5,   31.9,   32.1,   31.9,   31.9,   31.7,   31.6,   32.0,   33.2,   34.7,  999.0,  999.0,  999.0,  999.0,  999.0,  999.0,  999.0,  999.0,  999.0,  999.0,  999.0,  999.0,  999.0,  999.0
2003/04/30 03:10,  999.0,   -2.7,    0.1,    2.7,    5.4,    7.6,   10.2,   13.0,   15.6,   17.5,   19.8,   23.2,   25.3,   25.9,   26.0,   27.2,   26.4,   27.5,   28.1,   29.5,   26.7,   27.4,   29.0,   30.1,   31.8,   31.2,   30.6,   30.0,   30.4,   30.9,   32.4,   33.1,   33.6,   33.3,   32.7,   31.7,   31.6,   31.8,   32.2,   32.3,   32.2,   31.2,   31.4,   30.9,   31.0,   30.7,   31.8,   31.6,  999.0,  999.0,  999.0,  999.0,  999.0,  999.0,  999.0,  999.0,  999.0,  999.0,  999.0,  999.0,  999.0,  999.0,  999.0
2003/04/30 03:20,  999.0,    0.3,    0.4,  999.0,   10.0,   10.9,   14.7,   14.5,   15.5,   18.1,   21.3,   23.6,   26.7,   26.0,   25.8,   27.5,   28.4,   30.0,   30.6,   31.0,   31.0,   29.3,   29.3,   30.4,   30.3,  999.0,   31.4,   30.8,   30.9,   31.4,   32.0,   31.8,   31.6,   32.0,   30.5,   30.3,   29.5,   30.1,   30.9,   32.0,   33.2,   34.6,   34.2,  999.0,  999.0,  999.0,  999.0,  999.0,  999.0,  999.0,  999.0,  999.0,  999.0,  999.0,  999.0,  999.0,  999.0,  999.0,  999.0,  999.0,  999.0,  999.0,  999.0
2003/04/30 03:30,  999.0,   -0.5,    3.4,    6.5,    8.1,   10.4,   12.7,   15.0,   17.3,   18.4,   19.8,   23.2,   25.2,   25.4,   25.1,   25.6,   26.7,   27.3,   28.2,   29.5,   30.0,   31.5,   30.2,  999.0,   31.0,   30.8,   30.4,   30.0,   30.4,   30.5,   31.0,   31.1,   31.1,   31.3,   31.5,   32.2,   32.5,   32.9,   33.5,   33.8,   33.7,   34.1,   34.5,   35.2,   35.2,   35.2,  999.0,  999.0,  999.0,  999.0,  999.0,  999.0,  999.0,  999.0,  999.0,  999.0,  999.0,  999.0,  999.0,  999.0,  999.0,  999.0,  999.0
2003/04/30 03:40,  999.0,   -0.3,    4.0,    6.5,    8.3,   10.5,   12.8,   14.9,   16.6,   18.1,   20.5,   23.5,   25.2,   26.4,   26.6,   27.0,   27.7,   28.1,   28.8,   29.3,   29.1,   30.5,   32.3,   32.7,   32.2,   31.4,   31.3,   30.9,   30.1,   30.3,   30.9,   31.7,   33.3,   33.4,   33.9,   34.7,   34.9,   34.8,   34.6,   35.2,   35.8,   35.7,   35.4,   34.7,  999.0,  999.0,  999.0,  999.0,  999.0,  999.0,  999.0,  999.0,  999.0,  999.0,  999.0,  999.0,  999.0,  999.0,  999.0,  999.0,  999.0,  999.0,  999.0
2003/04/30 03:50,  999.0,  999.0,    4.6,    7.3,    9.0,   11.2,   13.6,   15.2,   16.6,   19.8,   21.3,   24.1,   24.9,   25.9,   26.1,   26.3,   27.4,   27.6,   29.0,   29.1,   30.3,   31.0,   31.6,   32.0,   32.4,   32.0,   32.2,   31.8,   31.7,   31.3,   31.4,   31.6,   31.9,   33.6,  999.0,  999.0,   33.0,  999.0,  999.0,  999.0,  999.0,  999.0,  999.0,  999.0,  999.0,  999.0,  999.0,  999.0,  999.0,  999.0,  999.0,  999.0,  999.0,  999.0,  999.0,  999.0,  999.0,  999.0,  999.0,  999.0,  999.0,  999.0,  999.0
2003/04/30 04:00,  999.0,    1.3,    4.2,    6.4,    9.5,   12.4,   14.7,   16.2,   18.1,   19.7,   21.2,   23.6,   24.8,   25.9,   26.5,   26.9,   27.2,   27.3,   27.5,   28.7,   29.7,   30.0,   31.3,   32.0,   32.5,   32.3,   32.1,   31.7,   31.6,   31.5,   31.7,   31.1,   31.1,   31.7,   32.4,   32.8,   34.3,   34.7,   35.2,   35.7,  999.0,  999.0,  999.0,  999.0,  999.0,  999.0,  999.0,  999.0,  999.0,  999.0,  999.0,  999.0,  999.0,  999.0,  999.0,  999.0,  999.0,  999.0,  999.0,  999.0,  999.0,  999.0,  999.0
2003/04/30 04:10,  999.0,  999.0,    4.9,    7.7,   10.7,   13.0,   15.2,   16.9,   18.2,   19.8,   22.0,   23.7,   26.0,   27.3,   27.9,   28.0,   28.0,   28.3,   28.6,   28.9,   29.1,   29.3,   30.1,   31.4,   32.5,   32.6,   32.3,   31.7,   31.5,   31.7,   32.5,   32.5,   31.7,   31.4,  999.0,  999.0,  999.0,  999.0,  999.0,  999.0,  999.0,  999.0,  999.0,  999.0,  999.0,  999.0,  999.0,  999.0,  999.0,  999.0,  999.0,  999.0,  999.0,  999.0,  999.0,  999.0,  999.0,  999.0,  999.0,  999.0,  999.0,  999.0,  999.0
2003/04/30 04:20,  999.0,  999.0,    5.9,    9.5,   11.8,   13.6,   15.5,   17.2,   18.7,   21.3,   23.4,   25.0,   25.3,   25.8,   25.8,   25.9,   26.7,   27.5,   29.6,   31.1,   31.9,   31.8,   32.2,   31.8,   31.3,   31.3,   30.2,   30.2,   31.1,   31.0,   31.5,   31.7,   31.1,   31.0,   31.4,   32.3,   32.9,   34.1,  999.0,  999.0,  999.0,  999.0,  999.0,  999.0,  999.0,  999.0,  999.0,  999.0,  999.0,  999.0,  999.0,  999.0,  999.0,  999.0,  999.0,  999.0,  999.0,  999.0,  999.0,  999.0,  999.0,  999.0,  999.0
2003/04/30 04:30,  999.0,    2.1,    6.3,    9.2,   11.5,   13.7,   15.5,   17.8,   19.6,   21.6,   23.0,   23.9,   24.6,   24.6,   24.2,   24.8,   24.7,   25.5,   26.6,   28.3,   27.1,   28.4,   29.2,   29.2,   29.9,   30.0,   30.1,   29.7,   29.1,   30.7,   31.1,   31.2,   30.8,   30.7,   31.1,  999.0,   33.4,  999.0,  999.0,  999.0,  999.0,  999.0,  999.0,  999.0,  999.0,  999.0,  999.0,  999.0,  999.0,  999.0,  999.0,  999.0,  999.0,  999.0,  999.0,  999.0,  999.0,  999.0,  999.0,  999.0,  999.0,  999.0,  999.0
2003/04/30 04:40,  999.0,    4.1,    8.6,   11.1,   12.4,   15.2,   16.4,   19.0,   21.0,   23.0,   23.7,   24.5,   25.8,   26.0,   25.9,   26.2,   27.0,   25.2,   27.0,   28.7,   29.0,  999.0,  999.0,   29.7,   29.8,   29.5,   28.5,   27.9,   27.8,   29.5,   30.4,   30.7,   30.5,   30.0,   30.3,  999.0,  999.0,  999.0,  999.0,  999.0,  999.0,  999.0,  999.0,  999.0,  999.0,  999.0,  999.0,  999.0,  999.0,  999.0,  999.0,  999.0,  999.0,  999.0,  999.0,  999.0,  999.0,  999.0,  999.0,  999.0,  999.0,  999.0,  999.0
2003/04/30 04:50,  999.0,    4.1,    8.8,   11.5,   12.9,   15.1,   17.0,   18.6,   20.1,   21.8,   23.5,   24.2,   25.2,   26.3,   26.7,   27.3,   26.8,   25.9,   24.8,   25.2,   27.1,   26.6,   28.1,   28.0,   28.0,   28.6,   28.3,   28.0,   27.3,   28.3,   30.9,  999.0,  999.0,  999.0,  999.0,  999.0,  999.0,  999.0,  999.0,  999.0,   30.3,  999.0,  999.0,  999.0,  999.0,  999.0,  999.0,  999.0,  999.0,  999.0,  999.0,  999.0,  999.0,  999.0,  999.0,  999.0,  999.0,  999.0,  999.0,  999.0,  999.0,  999.0,  999.0
2003/04/30 05:00,  999.0,    4.9,    8.3,   10.8,   13.1,   15.2,   16.8,   17.9,   19.7,   21.5,   23.8,   25.2,   26.1,   26.1,   26.3,   26.5,   26.8,   26.6,   26.6,   26.1,   26.2,   26.6,   27.1,   27.6,   27.8,   28.2,   28.5,   27.9,   27.3,   28.6,   28.9,   30.5,   30.1,   30.7,   30.8,   31.7,   30.9,  999.0,   32.3,  999.0,  999.0,   32.0,  999.0,  999.0,  999.0,  999.0,  999.0,  999.0,  999.0,  999.0,  999.0,  999.0,  999.0,  999.0,  999.0,  999.0,  999.0,  999.0,  999.0,  999.0,  999.0,  999.0,  999.0
2003/04/30 05:10,  999.0,    3.7,    6.7,    9.8,   13.2,   15.3,   16.1,   18.2,   20.1,   23.1,   24.4,   25.2,   26.2,   26.7,   27.0,   27.3,   27.2,   27.0,   26.5,   27.1,   27.2,   26.7,   27.6,   28.5,   28.4,   28.5,   27.4,   27.4,   27.2,   28.0,   28.2,   29.0,   29.8,   29.5,   30.0,   30.4,   31.1,  999.0,  999.0,  999.0,  999.0,  999.0,  999.0,  999.0,  999.0,  999.0,  999.0,  999.0,  999.0,  999.0,  999.0,  999.0,  999.0,  999.0,  999.0,  999.0,  999.0,  999.0,  999.0,  999.0,  999.0,  999.0,  999.0
2003/04/30 05:20,  999.0,    5.1,    7.5,   10.6,   13.3,   15.1,   16.3,   18.3,   19.7,   22.5,   24.1,   24.7,   25.0,   25.4,   24.5,   25.0,   25.8,   25.6,   26.1,   25.4,   24.6,   24.8,   25.1,   26.0,   26.4,   27.4,   28.7,   28.3,   27.2,   27.4,   29.4,  999.0,   27.9,   29.0,  999.0,  999.0,  999.0,  999.0,  999.0,  999.0,  999.0,  999.0,  999.0,  999.0,  999.0,  999.0,  999.0,  999.0,  999.0,  999.0,  999.0,  999.0,  999.0,  999.0,  999.0,  999.0,  999.0,  999.0,  999.0,  999.0,  999.0,  999.0,  999.0
2003/04/30 05:30,  999.0,    4.8,    7.9,   11.4,   12.8,   14.4,   16.5,   18.3,   21.2,   23.7,   25.0,   24.8,   23.7,   23.5,   23.9,   23.4,   23.5,   24.4,   24.4,   24.7,   26.0,   26.2,   28.6,   27.0,   27.5,   27.8,   28.1,   27.6,   27.1,   26.8,   26.6,   26.9,   27.5,   28.0,   28.6,   29.4,   29.8,   31.1,  999.0,  999.0,  999.0,  999.0,  999.0,  999.0,  999.0,  999.0,  999.0,  999.0,  999.0,  999.0,  999.0,  999.0,  999.0,  999.0,  999.0,  999.0,  999.0,  999.0,  999.0,  999.0,  999.0,  999.0,  999.0
2003/04/30 05:40,  999.0,    3.7,    7.5,   10.2,   12.3,   14.7,   16.5,   18.6,   19.9,   22.2,   22.9,   23.5,   24.3,   24.9,   24.8,   24.7,   25.0,   24.7,   24.6,   24.9,   25.3,   26.0,  999.0,   28.1,   28.2,   28.3,   28.4,   28.3,   28.2,   27.7,   27.2,   27.3,   27.9,   28.2,   28.3,   28.3,   28.7,   28.9,   29.0,   28.6,  999.0,  999.0,  999.0,  999.0,  999.0,  999.0,  999.0,  999.0,  999.0,  999.0,  999.0,  999.0,  999.0,  999.0,  999.0,  999.0,  999.0,  999.0,  999.0,  999.0,  999.0,  999.0,  999.0
2003/04/30 05:50,  999.0,    5.1,    7.7,   11.7,   13.6,   15.3,   16.3,   17.3,   19.0,   20.2,   21.3,   22.2,   23.0,   23.7,   24.1,   24.9,   25.7,   26.1,   26.7,   27.0,   27.4,  999.0,  999.0,   28.4,   28.4,   28.5,   28.7,   28.7,   28.6,   28.6,   28.6,   29.0,   29.1,   28.8,   28.7,   28.5,   28.5,   29.0,   29.4,   29.9,   31.1,  999.0,  999.0,  999.0,  999.0,  999.0,  999.0,  999.0,  999.0,  999.0,  999.0,  999.0,  999.0,  999.0,  999.0,  999.0,  999.0,  999.0,  999.0,  999.0,  999.0,  999.0,  999.0
2003/04/30 06:00,  999.0,    7.1,    9.4,   12.7,   14.7,   16.4,   17.2,   18.3,   18.7,   19.0,   19.8,   19.8,   20.5,   20.1,   20.5,   20.6,   20.4,   19.8,   19.9,   19.4,   20.6,   22.7,   22.7,   22.4,   22.6,   23.5,   24.8,   25.8,   26.3,   26.6,   26.7,   27.0,   27.2,   27.5,   27.4,   27.6,   27.9,   29.2,  999.0,  999.0,  999.0,  999.0,  999.0,  999.0,  999.0,  999.0,  999.0,  999.0,  999.0,  999.0,  999.0,  999.0,  999.0,  999.0,  999.0,  999.0,  999.0,  999.0,  999.0,  999.0,  999.0,  999.0,  999.0
2003/04/30 06:10,  999.0,   11.2,   14.2,   16.3,   18.7,   19.6,   20.3,   20.3,   19.4,   19.1,   19.6,   19.8,   19.8,   20.3,   20.4,   20.4,   19.8,   19.0,   17.7,   16.8,   17.2,   15.3,   17.8,   17.8,   18.7,   19.2,   19.9,   20.8,   22.3,   23.3,   24.2,   24.5,   25.0,   26.1,   26.8,   27.0,   27.0,   26.5,   26.7,   26.9,   28.3,   30.9,   32.7,   34.8,  999.0,  999.0,  999.0,  999.0,  999.0,  999.0,  999.0,  999.0,  999.0,  999.0,  999.0,  999.0,  999.0,  999.0,  999.0,  999.0,  999.0,  999.0,  999.0
2003/04/30 06:20,  999.0,   11.3,   14.2,   16.8,   20.3,   23.1,   23.9,   23.7,   22.4,   20.6,   20.1,   20.3,   20.5,   21.1,   21.4,   20.4,   19.1,   18.2,   17.0,   15.6,   15.9,  999.0,   17.4,   17.9,   18.2,   18.7,   19.6,   20.2,   20.9,   21.9,   22.5,   22.9,   23.9,   25.0,   26.0,   26.2,   26.1,   26.4,   26.9,   26.8,   27.4,   28.5,   30.0,   32.3,   33.3,   34.9,   35.5,  999.0,  999.0,  999.0,  999.0,  999.0,  999.0,  999.0,  999.0,  999.0,  999.0,  999.0,  999.0,  999.0,  999.0,  999.0,  999.0
2003/04/30 06:30,  999.0,   11.1,   13.8,   17.2,   20.4,   22.8,   24.5,   25.0,   24.5,   23.8,   22.7,   21.2,   20.8,   20.7,   20.9,   21.2,   20.3,   17.8,   16.6,   16.2,   16.5,  999.0,   17.4,   16.3,   16.9,   17.2,   17.2,   17.9,   18.5,   19.4,   20.3,   20.7,   21.8,   23.4,   24.5,   25.5,   26.6,   26.7,   26.8,   26.6,   26.2,   28.2,   28.5,   26.9,   29.9,   29.5,   31.5,   33.4,   36.5,   37.8,   39.2,   38.7,   38.3,   39.0,  999.0,   39.0,  999.0,  999.0,  999.0,  999.0,  999.0,  999.0,  999.0
2003/04/30 06:40,  999.0,   11.9,   14.8,   17.4,   19.1,   20.4,   21.8,   23.6,   24.2,   23.5,   23.1,   21.6,   22.1,   22.4,   22.0,   21.6,   21.2,   19.1,   17.9,   17.0,   16.8,  999.0,   17.2,   16.9,   16.8,   17.4,   18.2,   18.9,   19.7,   20.9,   21.5,   21.7,   22.3,   23.3,   24.5,   25.4,   26.3,   26.9,   27.5,   27.9,   27.5,   26.5,   26.1,   27.0,   28.5,   29.6,   30.9,   32.1,   34.1,   36.1,   37.3,   38.8,   37.9,   39.6,   39.6,   39.6,   40.5,  999.0,   38.1,  999.0,  999.0,  999.0,  999.0
2003/04/30 06:50,  999.0,   11.9,   14.1,   15.8,   16.9,   18.3,   19.8,   21.7,   23.2,   23.7,   24.2,   23.3,   23.6,   24.9,   25.1,   25.1,   24.8,   22.2,   19.4,   17.4,   17.2,  999.0,   18.5,   18.0,   17.6,   17.3,   17.4,   18.1,   18.8,   20.1,   20.7,   21.1,   21.9,   23.7,   25.0,   25.7,   26.0,   26.4,   27.2,   27.8,   27.5,   27.4,   27.8,   27.9,   28.2,   29.4,   30.3,   31.7,   33.2,   34.0,   34.5,   34.8,   35.1,   35.5,   35.7,   36.5,   37.7,   38.9,   39.8,   41.1,   40.8,   42.0,  999.0
2003/04/30 07:00,  999.0,   11.4,   13.3,   14.4,   15.4,   16.8,   19.2,   21.3,   22.6,   23.4,   24.4,   26.0,   26.0,   25.0,   24.7,   25.1,   25.8,   24.0,   20.9,   16.7,  999.0,   18.2,   19.0,   18.8,   17.9,   17.3,   16.7,   18.1,   19.6,   20.9,   21.8,   22.2,   23.1,   23.3,   23.8,   24.9,   25.6,   26.2,   26.6,   27.6,   28.5,   29.2,   29.7,   30.8,   31.9,   33.0,   33.4,   33.9,   33.9,   33.7,   34.0,   34.2,   34.6,   35.4,   36.5,   37.7,   38.0,   38.0,   38.3,   39.8,  999.0,  999.0,  999.0
2003/04/30 07:10,  999.0,    9.7,   11.3,   11.5,   12.1,   14.3,   16.4,   18.5,   20.6,   22.5,   25.1,   26.9,   27.8,   27.2,   26.3,   26.5,   26.2,   24.4,   21.2,   19.3,  999.0,   18.4,   17.9,   17.8,   16.6,   16.5,   17.5,   18.2,   18.8,   19.5,   20.4,   21.6,   22.7,   23.9,   24.8,   25.1,   25.2,   26.5,   27.8,   29.0,   30.8,   32.0,   32.7,   34.2,   35.2,   35.3,   35.5,   36.6,   37.3,   37.8,   38.4,   38.6,   38.4,   38.4,   38.3,   38.8,   38.5,   39.0,   39.1,   38.6,  999.0,  999.0,  999.0
2003/04/30 07:20,  999.0,    7.6,    8.8,    8.4,   10.0,   11.6,   13.4,   15.3,   18.3,   21.5,   24.3,   26.4,   28.4,   29.3,   28.1,   27.1,   26.0,   23.1,   20.6,   17.6,  999.0,   18.7,   18.1,   18.1,   19.1,   20.4,   21.3,   21.8,   22.6,   23.2,   23.7,   24.0,   24.7,   25.7,   26.0,   26.3,   26.8,   26.9,   27.6,   28.1,   28.6,   29.1,   30.4,   32.0,   33.2,   34.3,   35.6,   36.8,   37.6,   37.9,   38.0,   37.9,   37.7,   37.8,   37.8,   38.0,   38.2,   38.6,   37.8,   38.7,   38.7,   39.3,  999.0
2003/04/30 07:30,  999.0,    7.4,    7.9,    7.1,    9.4,   11.7,   13.4,   15.8,   17.3,   19.5,   21.9,   24.9,   26.7,   28.7,   30.3,   28.5,   25.6,   22.4,  999.0,  999.0,  999.0,   19.9,   20.9,   20.7,   21.4,   22.4,   22.8,   23.1,   23.6,   24.2,   24.6,   25.7,   26.3,   27.5,   28.2,   28.5,   28.8,   29.3,   30.2,   31.4,   32.4,   33.1,   34.0,   34.8,   35.0,   35.4,   35.8,   35.7,   35.3,   34.8,   34.4,   34.3,   34.8,   35.6,   35.8,   36.4,   36.4,   36.0,   36.8,   37.0,   36.9,  999.0,  999.0
2003/04/30 07:40,  999.0,    5.6,    7.4,    6.5,    6.9,    8.7,    9.8,   11.5,   13.2,   14.5,   15.0,   16.3,   19.3,   22.6,   24.5,   25.8,   26.0,   23.7,   22.1,   21.1,  999.0,   21.4,   20.7,   20.6,   21.4,   22.3,   23.2,   23.8,   24.5,   24.9,   25.5,   26.1,   26.7,   27.2,   27.5,   27.6,   27.5,   27.5,   27.9,   28.9,   29.3,   30.5,   31.6,   32.2,   32.6,   32.9,   33.3,   33.6,   33.4,   33.7,   33.8,   33.9,   34.0,   34.5,   34.7,   34.8,   35.0,   35.3,   36.0,   36.3,   36.4,   37.7,   37.7
2003/04/30 07:50,  999.0,   -0.2,    2.2,    2.2,    2.6,    2.5,    4.5,    5.1,    5.8,    7.6,   10.1,   12.3,   16.3,   17.8,   21.5,   23.4,   23.9,   23.4,   23.4,   21.6,   23.1,   23.0,   22.5,   22.4,   22.6,   22.8,   23.1,   23.2,   23.2,   23.6,   24.1,   24.8,   25.3,   25.9,   26.3,   27.1,   27.4,   27.8,   28.1,   28.4,   29.1,   29.3,   29.0,   28.9,   29.8,   30.9,   31.9,   32.4,   32.9,   34.0,   34.7,   35.5,   36.7,   37.1,   36.0,   35.9,   35.5,   36.7,   37.1,   38.6,  999.0,  999.0,  999.0
2003/04/30 08:00,  999.0,   -1.2,   -1.6,   -0.6,    0.6,    2.0,    2.8,    4.2,    5.1,    7.0,    9.2,   12.3,   14.1,   16.3,   17.8,   20.8,   23.1,   23.7,   24.3,   24.6,  999.0,   24.0,   22.8,   22.0,   21.3,   22.0,   22.2,   22.5,   22.9,   23.1,   23.8,   24.1,   24.4,   25.1,   25.8,   26.3,   27.3,   27.7,   28.2,   28.9,   29.9,   30.2,   30.9,   31.0,   31.5,   32.2,   32.3,   32.9,   33.0,   33.0,   33.6,   34.8,   36.0,   36.8,   36.7,   37.4,   38.1,   39.2,  999.0,  999.0,  999.0,  999.0,  999.0
2003/04/30 08:10,  999.0,   -2.7,   -2.3,   -0.7,    0.8,    2.2,    3.4,    4.7,    5.9,    8.1,    9.7,   12.7,   14.6,   16.9,   19.0,   20.6,   22.3,   22.3,   23.7,   26.8,  999.0,   30.2,   25.3,   24.0,   22.6,   21.4,   21.1,   21.8,   22.6,   23.4,   24.4,   25.1,   25.6,   26.8,   27.0,   27.1,   27.1,   28.0,   28.5,   29.4,   30.2,   30.5,   31.2,   31.3,   31.7,   31.7,   32.0,   31.9,   31.2,   31.4,   32.0,   32.7,   34.0,   35.6,   36.0,   36.6,   37.2,   37.6,   39.0,   38.7,   38.0,  999.0,  999.0
2003/04/30 08:20,  999.0,   -0.7,    0.4,    1.3,    2.2,    2.8,    3.7,    5.3,    6.9,    9.4,   10.8,   12.0,   14.1,   15.7,   17.8,   19.2,   21.3,   22.7,   22.9,   25.2,   23.6,   24.9,   23.2,   23.6,   22.6,   21.9,   22.1,   23.1,   24.2,   24.2,   24.2,   24.7,   25.4,   26.5,   26.9,   27.2,   27.7,   28.6,   29.7,   30.2,   31.0,   31.0,   31.6,   32.5,   33.1,   33.7,   34.0,   34.4,   34.4,   34.7,   35.5,   35.7,   35.6,   35.6,   35.6,   36.5,   37.5,   38.4,  999.0,   36.6,  999.0,  999.0,  999.0
2003/04/30 08:30,  999.0,    0.8,    1.4,    3.4,    4.4,    3.7,    5.8,    7.2,    8.1,    8.9,    9.5,   10.2,   11.7,   13.7,   15.7,   18.7,   20.6,   24.0,   25.1,   27.6,  999.0,   26.6,   24.9,   25.1,   25.3,   25.2,   25.1,   24.8,   24.8,   24.9,   25.1,   25.8,   26.5,   27.5,   28.2,   29.0,   29.6,   29.8,   29.7,   29.9,   30.0,   30.7,   31.9,   33.4,   34.1,   34.2,   34.3,   34.5,   34.0,   34.1,   34.5,   34.7,   34.7,   34.6,   35.1,   35.6,  999.0,  999.0,  999.0,  999.0,  999.0,  999.0,  999.0
2003/04/30 08:40,  999.0,    1.3,    2.3,    3.8,    5.8,    6.3,    6.4,    8.0,    9.6,   11.0,   12.3,   14.9,   15.8,   16.8,   16.3,   16.9,   18.2,   20.5,   22.5,   26.4,   24.9,   25.6,   26.1,   25.2,   25.2,   25.5,   25.7,   25.9,   26.3,   27.0,   27.7,   27.9,   27.8,   28.1,   28.8,   28.9,   29.0,   30.2,   31.3,   32.6,   33.5,   33.3,   33.5,   33.3,   32.5,   32.3,   32.4,   32.8,   33.8,   35.1,   34.6,   34.0,   34.4,   33.6,   33.6,   35.9,  999.0,  999.0,  999.0,  999.0,  999.0,  999.0,  999.0
2003/04/30 08:50,  999.0,    1.3,    1.5,    2.1,    4.4,    6.2,    7.2,    9.5,   12.3,   15.2,   18.1,   20.6,   23.3,   25.3,   25.6,   25.0,   24.8,   25.1,   25.1,   25.6,   25.6,   26.3,   26.3,   25.5,   24.7,   24.6,   25.4,   26.3,   27.5,   28.4,   28.7,   28.5,   28.3,   28.6,   28.9,   29.3,   30.5,   31.8,   32.5,   32.3,   32.8,   33.3,   33.3,   33.7,   33.9,   33.0,   32.7,   32.5,   32.3,   32.5,   33.2,   34.3,   34.5,  999.0,  999.0,  999.0,  999.0,  999.0,  999.0,  999.0,  999.0,  999.0,  999.0
2003/04/30 09:00,  999.0,    2.8,    3.1,    4.2,    7.4,    8.5,    8.0,    8.6,   10.0,   12.1,   15.5,   17.4,   21.3,   22.1,   24.6,   24.5,   26.2,   27.2,   27.1,   27.3,   27.2,   26.6,   24.6,   23.6,   22.5,   23.7,   26.0,   26.4,   26.6,   26.6,   26.9,   27.2,   27.4,   27.8,   29.2,   29.9,  999.0,  999.0,  999.0,  999.0,  999.0,  999.0,  999.0,  999.0,  999.0,  999.0,  999.0,  999.0,  999.0,  999.0,  999.0,  999.0,  999.0,  999.0,  999.0,  999.0,  999.0,  999.0,  999.0,  999.0,  999.0,  999.0,  999.0
2003/04/30 09:10,  999.0,    5.7,    5.7,    8.4,   10.2,   10.8,   10.1,   13.3,   12.0,   15.7,   18.5,   20.1,   20.4,   22.4,   23.2,   23.5,   26.7,   27.5,   28.3,   28.2,   27.4,   26.5,   23.9,   23.5,   23.9,   24.0,   24.9,   25.1,   25.3,   27.9,  999.0,  999.0,  999.0,  999.0,  999.0,  999.0,  999.0,  999.0,  999.0,  999.0,  999.0,  999.0,  999.0,  999.0,  999.0,  999.0,  999.0,  999.0,  999.0,  999.0,  999.0,  999.0,  999.0,  999.0,  999.0,  999.0,  999.0,  999.0,  999.0,  999.0,  999.0,  999.0,  999.0
2003/04/30 09:20,  999.0,    4.9,    6.3,    7.5,    8.3,   11.2,   11.5,   10.6,   13.4,   17.6,   19.6,   20.8,   23.4,   24.5,   27.7,   26.8,   28.4,   29.8,   29.6,   28.5,   26.5,   28.0,   27.1,   26.9,   24.0,   23.6,   24.0,   25.2,   26.9,   28.1,   28.7,   28.7,   29.0,   29.6,   30.4,   31.6,   31.7,  999.0,  999.0,  999.0,  999.0,  999.0,  999.0,  999.0,  999.0,  999.0,  999.0,  999.0,  999.0,  999.0,  999.0,  999.0,  999.0,  999.0,  999.0,  999.0,  999.0,  999.0,  999.0,  999.0,  999.0,  999.0,  999.0
2003/04/30 09:30,  999.0,    4.0,    5.3,    6.9,    8.7,    9.3,    9.7,   10.9,   11.4,   12.4,   14.2,   16.9,   19.1,   22.0,   23.6,   24.2,   25.9,   27.2,   29.6,   29.7,   28.8,   29.0,   29.4,   28.6,   26.1,   24.1,   23.9,   26.1,   27.2,   28.2,   28.9,   29.6,   30.2,   31.0,   31.7,   32.1,   32.5,  999.0,  999.0,  999.0,  999.0,  999.0,  999.0,  999.0,  999.0,  999.0,  999.0,  999.0,  999.0,  999.0,  999.0,  999.0,  999.0,  999.0,  999.0,  999.0,  999.0,  999.0,  999.0,  999.0,  999.0,  999.0,  999.0
2003/04/30 09:40,  999.0,    3.8,    6.4,    7.5,    7.8,    9.6,   10.3,   10.6,   13.5,   15.8,   18.4,   19.4,   20.5,   21.4,   22.6,   24.1,   24.8,   25.7,   26.5,   27.1,   27.8,   28.9,   29.9,   29.7,   28.2,   26.6,   25.6,   26.3,   26.9,   27.6,   28.1,   28.6,   30.0,   31.2,  999.0,  999.0,  999.0,  999.0,  999.0,  999.0,  999.0,  999.0,  999.0,  999.0,  999.0,  999.0,  999.0,  999.0,  999.0,  999.0,  999.0,  999.0,  999.0,  999.0,  999.0,  999.0,  999.0,  999.0,  999.0,  999.0,  999.0,  999.0,  999.0
2003/04/30 09:50,  999.0,    2.6,    3.9,    4.9,    7.8,    9.1,    9.0,   13.2,   14.1,   13.7,   16.8,   19.1,   19.9,   21.7,   24.2,   25.5,   26.3,   27.5,   28.2,   29.8,   29.8,   28.6,   29.0,   30.8,   30.8,   28.6,   27.0,   26.7,   26.5,   26.4,   26.4,   27.3,   28.5,   29.3,   29.1,   29.9,  999.0,   31.7,  999.0,  999.0,  999.0,  999.0,  999.0,  999.0,  999.0,  999.0,  999.0,  999.0,  999.0,  999.0,  999.0,  999.0,  999.0,  999.0,  999.0,  999.0,  999.0,  999.0,  999.0,  999.0,  999.0,  999.0,  999.0
2003/04/30 10:00,  999.0,    3.4,    4.0,    6.8,    8.4,   10.7,   10.9,   13.4,  999.0,   13.9,   17.3,   18.0,   19.8,   20.6,   23.3,   24.8,   26.1,   27.7,   29.4,   30.6,   30.6,   29.0,   28.2,   29.1,   30.6,   29.8,   28.1,   26.9,   26.7,   26.5,   26.7,   26.9,   27.6,   28.3,  999.0,  999.0,   31.8,   32.5,  999.0,  999.0,  999.0,  999.0,  999.0,  999.0,  999.0,  999.0,  999.0,  999.0,  999.0,  999.0,  999.0,  999.0,  999.0,  999.0,  999.0,  999.0,  999.0,  999.0,  999.0,  999.0,  999.0,  999.0,  999.0
2003/04/30 10:10,  999.0,    2.9,    4.4,    4.9,    7.9,   10.2,   11.1,   11.6,   13.7,   16.2,   17.2,   18.6,   19.8,   20.1,   21.0,   22.1,   24.1,   26.4,   27.6,   29.3,   31.0,   30.7,   30.9,  999.0,  999.0,  999.0,   27.8,  999.0,   26.8,   27.3,   28.5,  999.0,  999.0,  999.0,  999.0,  999.0,  999.0,  999.0,  999.0,  999.0,  999.0,   36.1,  999.0,  999.0,  999.0,  999.0,  999.0,  999.0,  999.0,  999.0,  999.0,  999.0,  999.0,  999.0,  999.0,  999.0,  999.0,  999.0,  999.0,  999.0,  999.0,  999.0,  999.0
2003/04/30 10:20,  999.0,    5.8,    5.3,    6.7,    7.6,   11.1,   11.2,   12.9,   13.2,   17.5,   18.0,   18.9,   19.9,   20.4,   21.4,   23.5,   25.4,   26.2,   27.2,   28.5,   30.8,   30.9,   30.7,   31.1,   30.9,   28.5,   26.9,   27.8,  999.0,  999.0,  999.0,  999.0,  999.0,  999.0,  999.0,  999.0,  999.0,   31.4,   33.8,   33.2,   34.0,   34.6,  999.0,  999.0,  999.0,  999.0,  999.0,  999.0,  999.0,  999.0,  999.0,  999.0,  999.0,  999.0,  999.0,  999.0,  999.0,  999.0,  999.0,  999.0,  999.0,  999.0,  999.0
2003/04/30 10:30,  999.0,    4.6,    4.9,    5.2,    8.1,   11.2,   11.3,   13.2,   15.3,   18.0,   19.5,   20.9,   22.1,   21.3,   21.9,   23.4,   24.5,   26.3,   27.3,   28.3,   28.8,   30.4,   30.6,   29.2,   29.5,   30.8,   29.8,   29.0,   29.8,   30.0,   30.6,   31.0,   31.8,   31.2,   31.5,   32.1,   32.4,   33.3,   34.2,   35.2,   35.8,   36.6,   37.3,   38.5,  999.0,  999.0,  999.0,  999.0,  999.0,  999.0,  999.0,  999.0,  999.0,  999.0,  999.0,  999.0,  999.0,  999.0,  999.0,  999.0,  999.0,  999.0,  999.0
2003/04/30 10:40,  999.0,    2.5,    2.5,    3.2,    7.6,   10.6,   12.3,   15.1,   17.1,   18.4,   19.4,   20.5,   21.5,   22.6,   23.2,  999.0,   27.3,   29.2,   29.3,   27.5,   28.3,   30.2,   30.1,   30.2,   31.3,   30.8,   29.0,   28.5,   29.3,   30.4,   31.6,   32.7,   32.8,   33.1,   34.1,   35.2,   34.9,   35.4,   36.3,   38.0,   38.9,  999.0,  999.0,  999.0,  999.0,  999.0,  999.0,   34.4,   35.2,   34.5,   34.3,   34.8,  999.0,  999.0,  999.0,  999.0,  999.0,  999.0,  999.0,  999.0,  999.0,  999.0,  999.0
2003/04/30 10:50,  999.0,    2.5,    2.4,    3.0,    5.4,    9.8,   11.0,   12.8,   14.9,   16.6,   18.2,   20.6,   21.4,   23.3,   25.7,   27.1,   29.5,   30.0,   29.2,   29.3,   30.8,   30.7,   30.0,   30.9,   31.8,   30.6,   29.1,   28.3,   28.9,   29.8,   30.8,   31.9,   31.6,   32.4,   33.9,   34.5,  999.0,  999.0,  999.0,  999.0,   37.7,  999.0,  999.0,  999.0,  999.0,  999.0,  999.0,  999.0,  999.0,  999.0,  999.0,  999.0,  999.0,  999.0,  999.0,  999.0,  999.0,  999.0,  999.0,  999.0,  999.0,  999.0,  999.0
2003/04/30 11:00,  999.0,    2.0,    3.5,    3.5,    5.3,    8.1,   11.2,   14.1,   16.4,   18.0,   18.7,   18.3,   20.8,   22.1,   23.2,   24.2,   26.3,   28.1,   29.3,   30.7,   29.8,   30.0,   29.3,   29.2,   29.7,   31.3,   31.1,   30.3,   30.1,   30.9,   31.6,   32.4,   32.8,   33.4,   34.5,   35.8,   36.0,  999.0,  999.0,  999.0,  999.0,  999.0,  999.0,  999.0,  999.0,  999.0,  999.0,  999.0,  999.0,  999.0,  999.0,  999.0,  999.0,  999.0,  999.0,  999.0,  999.0,  999.0,  999.0,  999.0,  999.0,  999.0,  999.0
2003/04/30 11:10,  999.0,    2.0,    3.8,    5.0,    6.3,    9.6,   12.8,   16.4,   18.0,   18.9,   19.6,   20.0,   20.2,   21.6,  999.0,  999.0,   24.7,   26.8,   27.6,   30.2,   29.8,   29.0,   28.6,   28.9,   28.6,   29.6,   31.3,   32.3,   31.6,   30.6,   30.4,   31.1,   31.7,   32.3,   33.3,  999.0,  999.0,  999.0,  999.0,  999.0,  999.0,  999.0,  999.0,  999.0,  999.0,  999.0,  999.0,  999.0,  999.0,  999.0,  999.0,  999.0,  999.0,  999.0,  999.0,  999.0,  999.0,  999.0,  999.0,  999.0,  999.0,  999.0,  999.0
2003/04/30 11:20,  999.0,    3.0,    4.6,    6.2,    7.6,   10.6,   13.9,   17.1,   18.3,   18.9,   19.3,   19.2,   19.6,   20.9,   21.3,   22.2,   23.0,   24.6,   26.1,   29.2,   31.6,   30.6,   28.9,   28.3,   28.2,   28.4,   30.1,   32.2,   32.0,   31.5,   32.1,   32.8,   33.0,   33.1,   33.7,   34.0,   34.5,   36.0,  999.0,  999.0,  999.0,  999.0,  999.0,  999.0,  999.0,  999.0,  999.0,  999.0,  999.0,  999.0,  999.0,  999.0,  999.0,  999.0,  999.0,  999.0,  999.0,  999.0,  999.0,  999.0,  999.0,  999.0,  999.0
2003/04/30 11:30,  999.0,    2.8,    4.5,    5.8,    7.0,    9.3,   12.5,   15.7,   17.8,   18.8,   19.2,   19.0,   19.8,   20.3,  999.0,   21.9,   22.2,   24.1,   25.9,   28.5,   32.6,   32.5,   31.1,   30.0,   28.8,   28.8,   29.7,   31.7,   32.1,   32.0,   32.9,   33.5,   34.0,   33.7,   32.8,   34.2,   35.4,   36.3,  999.0,  999.0,  999.0,  999.0,  999.0,  999.0,  999.0,  999.0,  999.0,  999.0,  999.0,  999.0,  999.0,  999.0,  999.0,  999.0,  999.0,  999.0,  999.0,  999.0,  999.0,  999.0,  999.0,  999.0,  999.0
2003/04/30 11:40,  999.0,    3.4,    5.0,    6.5,    8.0,    9.7,   11.9,   15.1,   17.4,   18.6,   18.7,   19.4,   21.0,   21.0,   20.8,   21.9,   21.9,   23.1,   24.3,   26.0,   30.6,   33.0,   31.0,   29.2,   27.5,   26.9,   28.0,   29.9,   31.9,   32.8,   33.5,   34.0,   34.3,   34.2,   34.7,   36.0,   35.8,   35.0,   35.8,   37.8,  999.0,  999.0,  999.0,  999.0,  999.0,  999.0,  999.0,  999.0,  999.0,  999.0,  999.0,  999.0,  999.0,  999.0,  999.0,  999.0,  999.0,  999.0,  999.0,  999.0,  999.0,  999.0,  999.0
2003/04/30 11:50,  999.0,    3.9,    5.7,    7.7,    8.9,    9.6,   11.9,   15.1,   16.8,   17.6,   18.9,   19.3,   21.1,   21.3,  999.0,   22.1,   22.8,   24.1,   24.3,   25.9,   30.7,   32.7,   31.4,   29.5,   27.9,   27.3,   27.3,   27.9,   29.7,   31.5,   32.5,   33.5,   34.4,   34.3,   34.1,   35.4,  999.0,  999.0,  999.0,  999.0,  999.0,  999.0,  999.0,  999.0,  999.0,  999.0,  999.0,  999.0,  999.0,  999.0,  999.0,  999.0,  999.0,  999.0,  999.0,  999.0,  999.0,  999.0,  999.0,  999.0,  999.0,  999.0,  999.0
2003/04/30 12:00,  999.0,    3.5,    5.7,    7.8,    8.3,    9.8,   11.5,   14.0,   16.4,   17.7,   19.5,   19.8,   20.5,   20.9,  999.0,   22.2,   22.6,   23.7,   24.0,   24.0,   28.4,   32.8,   33.6,   32.4,   30.4,   28.7,   27.9,   28.2,   29.0,   30.1,   31.3,   33.3,  999.0,  999.0,   34.7,  999.0,  999.0,  999.0,  999.0,  999.0,  999.0,  999.0,  999.0,  999.0,  999.0,   38.5,   38.3,   39.3,   39.2,   39.1,   38.5,   37.9,   38.0,   39.1,   39.7,   40.0,  999.0,  999.0,  999.0,  999.0,  999.0,  999.0,  999.0
2003/04/30 12:10,  999.0,    3.6,    5.1,    7.1,    8.7,    9.9,   12.0,   14.4,   16.3,   17.3,   18.6,   19.5,   20.7,   20.6,  999.0,   21.5,   21.1,   21.7,   22.6,   23.1,   25.8,   30.1,   34.1,   33.6,   31.7,   30.2,   29.1,   28.4,   28.6,   30.1,   31.6,   32.4,   32.8,   33.3,   34.4,   33.8,   33.9,  999.0,  999.0,  999.0,  999.0,  999.0,  999.0,  999.0,  999.0,  999.0,  999.0,  999.0,  999.0,  999.0,  999.0,  999.0,  999.0,  999.0,  999.0,  999.0,  999.0,  999.0,  999.0,  999.0,  999.0,  999.0,  999.0
2003/04/30 12:20,  999.0,    5.4,    6.3,    7.0,    7.8,   10.2,   12.2,   14.8,   16.7,   17.0,   18.1,   19.9,   20.9,   20.4,   20.4,   20.8,   20.8,   20.0,   20.5,   23.0,   25.5,   29.8,   32.3,   32.3,   31.6,   30.3,   29.1,   29.0,   29.1,   31.1,   32.5,   32.5,   33.2,   33.8,   34.1,   34.1,   35.9,  999.0,  999.0,  999.0,  999.0,  999.0,  999.0,  999.0,  999.0,  999.0,   37.2,   38.7,  999.0,  999.0,   38.5,  999.0,  999.0,  999.0,   40.2,   39.6,   40.8,   40.5,  999.0,  999.0,  999.0,  999.0,  999.0
2003/04/30 12:30,  999.0,    5.2,    6.9,    7.3,    8.4,   11.7,   13.2,   15.2,   16.2,   15.9,   16.6,   19.0,   20.2,   19.9,   20.6,   20.9,   21.0,   21.0,   21.4,   23.1,   26.6,   29.0,   32.5,   33.6,   32.8,   31.6,   29.8,   29.2,   30.0,   31.6,   32.0,   32.6,   33.6,   34.6,   34.8,   35.1,   35.8,   36.7,   36.5,   37.8,   40.8,   39.7,   39.4,   39.4,   37.9,   38.2,   37.8,   38.2,   38.7,   39.1,   39.1,   38.2,   38.4,   38.5,   38.5,   38.6,   38.4,   39.1,   38.3,   39.7,   41.8,  999.0,   45.0
2003/04/30 12:40,  999.0,    5.8,    6.6,    6.7,    8.3,   11.4,   12.9,   14.7,   15.3,   15.5,   16.2,   17.5,   19.1,   19.5,   20.0,   20.0,   20.1,   19.4,   19.6,   20.6,   23.0,   28.0,   32.0,   33.0,   32.5,   30.9,   29.8,   29.2,   28.7,   29.6,   30.3,   31.0,   32.9,   34.4,   35.4,   35.9,   36.4,   37.1,   37.5,   39.6,  999.0,  999.0,  999.0,  999.0,   38.4,   37.9,   37.3,   37.1,   37.9,   38.1,   38.5,   38.6,   38.9,   38.2,   38.0,   38.1,  999.0,  999.0,  999.0,  999.0,  999.0,  999.0,  999.0
2003/04/30 12:50,  999.0,    5.0,    6.9,    7.8,    9.0,   11.8,   14.2,   16.2,   16.5,   17.2,   19.2,   20.4,   19.1,   18.2,  999.0,   18.8,   18.7,   18.1,   18.0,   19.3,   22.8,   27.4,   31.7,   32.1,   32.3,   31.5,   30.2,   29.4,   29.6,   29.5,   29.5,   31.4,   33.2,   34.7,   35.9,   36.7,   37.3,   37.8,   37.8,   38.1,   38.7,   38.5,   38.9,   37.8,   37.8,   38.5,   38.4,   38.5,   38.5,   37.8,   38.4,   38.4,   38.0,   38.1,   37.5,   37.2,   36.5,   36.4,   37.3,   40.3,  999.0,   41.4,  999.0
2003/04/30 13:00,  999.0,    5.1,    6.9,    7.7,    9.0,   11.6,   14.2,   15.4,   15.7,   17.2,   18.8,   19.7,   18.6,  999.0,   19.5,   19.8,   18.9,   17.9,   18.5,   20.7,   24.2,   29.4,   31.8,   32.9,   32.6,   32.0,   30.3,   29.8,   29.7,   29.5,   29.8,   32.1,   34.7,   35.9,   36.4,   36.8,   37.3,   37.1,   37.8,   38.7,   39.3,  999.0,  999.0,  999.0,  999.0,  999.0,  999.0,  999.0,  999.0,  999.0,  999.0,  999.0,  999.0,  999.0,  999.0,   38.7,   39.1,   39.5,   40.0,   40.6,   40.7,  999.0,  999.0
2003/04/30 13:10,  999.0,    5.1,    6.3,    7.6,    8.9,   10.3,   12.4,   13.4,   13.7,   15.3,   16.9,   16.6,   16.5,   17.8,   18.6,   19.0,   19.4,   19.5,   20.5,   22.3,   26.2,   30.2,   32.5,   32.7,   32.4,   31.6,   30.6,   29.5,   29.3,   30.0,   29.5,   30.6,   32.8,   34.3,   35.4,   35.9,   36.3,   36.8,   36.8,   36.8,   37.3,   37.6,   37.2,   37.1,   36.8,   37.4,  999.0,  999.0,  999.0,  999.0,  999.0,  999.0,  999.0,  999.0,  999.0,  999.0,  999.0,  999.0,  999.0,  999.0,  999.0,  999.0,  999.0
2003/04/30 13:20,  999.0,    4.3,    5.6,    6.8,    7.5,    8.7,   11.0,   13.0,   13.9,   14.7,   16.7,   18.0,   18.7,   18.5,   18.7,   18.2,   18.3,   18.8,   20.3,   21.4,   25.8,   29.8,   32.4,   32.9,   32.7,   31.0,   29.7,   29.1,   29.8,   30.7,   30.4,   30.5,   32.3,   34.3,   35.8,   36.6,   37.6,   37.6,   37.7,   38.4,   37.7,   37.1,   37.0,   36.8,   36.6,   36.7,   36.8,   36.8,   36.9,   37.0,   37.0,   36.8,   36.8,   37.3,   37.3,   38.6,   39.4,   38.6,   38.8,  999.0,  999.0,  999.0,  999.0
2003/04/30 13:30,  999.0,    4.8,    6.2,    7.3,    7.3,    8.6,   11.0,   12.9,   13.6,   14.8,   15.8,   17.4,   17.2,  999.0,   18.0,   18.7,   19.5,   20.7,   22.1,   24.0,   27.2,   30.5,   33.9,   33.8,   32.4,   30.9,   29.0,   28.9,   30.2,   30.7,   31.1,   32.9,   35.5,   37.7,   38.2,   38.3,   38.0,   38.2,   37.9,   37.0,   36.9,   36.6,   36.8,   37.5,   37.6,   38.5,   37.3,   36.3,   36.3,   35.9,   36.0,   36.3,   36.4,   36.6,   37.0,   36.7,   37.2,   37.7,   38.6,   40.2,   43.2,  999.0,  999.0
2003/04/30 13:40,  999.0,    4.1,    6.2,    6.6,    7.0,    8.8,   10.9,   12.4,   13.7,   15.5,   17.1,   18.1,   17.9,  999.0,   18.6,   19.6,   19.9,   20.0,   20.6,   22.6,   25.7,   29.1,   32.8,   35.3,   34.6,   32.8,   30.4,   29.1,   29.4,   30.6,   31.8,   34.7,   36.8,   37.8,   38.6,   39.5,   39.5,   37.8,   35.1,   34.8,   34.6,   35.5,   34.9,   34.7,   35.2,   35.3,   36.4,   36.2,   36.0,   35.8,   36.6,   37.4,   37.7,   37.9,   38.1,   39.5,  999.0,  999.0,  999.0,  999.0,  999.0,  999.0,  999.0
2003/04/30 13:50,  999.0,    4.8,    5.7,    6.8,    7.1,    7.9,   10.2,   11.6,   12.9,   14.5,   16.3,   17.4,   17.2,   17.6,   18.2,   19.0,   19.7,   21.4,   23.0,   24.7,   26.7,   29.1,   32.1,   33.9,   34.2,   33.0,   30.8,   29.9,   29.4,   30.7,   32.3,   35.4,   37.6,   38.5,   38.6,   38.9,   38.8,   37.9,   35.9,   34.7,   35.4,   35.9,   36.1,   36.7,   36.3,   35.7,   35.8,   36.0,   36.2,   36.8,   37.1,   37.7,   38.1,   38.4,   38.6,   38.9,   39.4,   39.3,   39.7,   39.6,  999.0,  999.0,  999.0
2003/04/30 14:00,  999.0,    5.8,    6.6,    6.9,    7.1,    7.8,    9.7,   11.3,   12.8,   13.9,   15.4,   16.9,   16.2,   16.9,   18.5,   19.3,   19.9,   21.2,   21.9,   23.2,   25.8,   27.3,   31.6,   34.2,   34.0,   33.7,   31.6,   29.7,   28.8,   30.1,   32.6,   35.5,   37.3,   38.1,   38.0,   37.8,   37.2,   36.3,   34.6,   34.2,   35.2,   36.5,   37.3,   37.5,   36.9,   36.4,   36.0,   36.4,   36.7,   37.2,   38.2,   38.2,   38.1,   38.1,   37.8,   37.2,   36.4,   36.3,   37.0,   38.2,   39.9,   41.6,   43.4
2003/04/30 14:10,  999.0,    5.8,    6.8,    6.8,    7.2,    8.7,   10.2,   10.5,   12.1,   12.7,   13.5,   15.3,   15.9,  999.0,   17.7,   18.5,   19.3,   20.5,   21.5,   23.3,   25.9,   28.2,   31.5,   33.3,   34.1,   33.4,   32.9,   30.9,   28.7,   29.2,   32.1,   35.3,   37.1,   37.9,   38.3,   38.2,   37.5,   36.0,   35.2,   34.9,   35.4,   36.2,   36.9,   36.9,   36.6,   37.2,   37.4,   38.1,   38.3,   38.1,   38.3,   38.4,   38.4,   38.4,   38.0,   37.0,   37.0,   39.1,  999.0,  999.0,  999.0,  999.0,  999.0
2003/04/30 14:20,  999.0,    5.8,    6.1,    6.9,    7.2,    8.8,   10.6,   10.8,   12.4,   13.3,   13.6,   14.8,   15.4,   16.7,   17.2,   18.9,   20.2,   22.1,   23.4,   24.1,   25.3,   27.3,   30.9,   33.3,   33.5,   34.6,   33.5,   31.4,   30.3,   30.0,   31.3,   33.6,   35.7,   37.4,   38.0,   38.0,   38.1,   36.3,   35.1,   34.9,   35.2,   34.8,   34.7,   35.3,   35.8,   36.2,   37.2,   37.8,   38.5,   38.7,   40.3,  999.0,   40.9,  999.0,   41.2,  999.0,  999.0,  999.0,  999.0,  999.0,  999.0,  999.0,  999.0
2003/04/30 14:30,  999.0,    7.7,    7.9,    6.8,    6.9,    9.6,   11.7,   12.2,   13.8,   15.5,   16.2,   16.4,   16.5,  999.0,   18.8,   20.2,   21.0,   22.4,   23.5,   24.7,   26.4,   28.7,   31.9,   33.8,   35.3,   34.9,   34.1,   33.2,   32.0,   31.0,   31.8,   34.1,   35.7,   36.6,   37.2,   37.9,   38.1,   38.0,   36.4,   34.5,   34.0,   33.7,   33.8,   33.9,   34.5,   35.8,   36.9,   38.0,   38.5,   38.5,   38.8,   38.6,   39.7,   39.7,   39.7,   40.2,  999.0,  999.0,  999.0,  999.0,  999.0,  999.0,  999.0
2003/04/30 14:40,  999.0,    5.7,    7.1,    6.4,    8.0,    8.8,   10.9,   11.0,   12.4,   13.6,   14.3,   14.8,   15.4,   18.1,   18.1,   20.9,   22.4,   23.4,   24.2,   24.5,   25.9,   27.7,   31.1,   34.7,   36.7,   37.0,   35.6,   34.0,   32.9,   32.3,   31.8,   32.2,   34.0,   35.7,   36.4,   37.3,   37.5,   38.1,   38.1,   37.1,   35.7,   33.9,   33.4,   33.9,   34.4,   34.9,   35.3,   36.0,   36.8,   36.9,   37.1,   37.7,   37.9,  999.0,  999.0,  999.0,  999.0,  999.0,  999.0,  999.0,  999.0,  999.0,  999.0
2003/04/30 14:50,  999.0,    8.8,    5.8,    4.5,    5.7,    8.8,   10.6,   13.2,   13.4,   14.2,   14.9,   15.3,   15.9,   18.3,   17.7,   19.7,   20.9,   22.6,   23.4,   25.9,   24.8,   24.4,   26.9,   31.2,   35.5,   36.4,   35.7,   34.9,   34.3,   34.0,   33.9,   33.8,   34.4,   34.9,   35.7,   36.7,   37.9,   38.4,   39.0,   38.7,   37.5,   36.0,   35.8,   36.0,   36.2,   36.4,   36.8,   37.0,   37.0,   37.6,   37.3,   37.1,   37.1,   37.0,   38.1,   38.9,   39.0,   39.7,   40.8,   40.9,  999.0,  999.0,  999.0
2003/04/30 15:00,  999.0,    4.2,    4.3,    4.3,    4.7,    8.0,    9.9,   12.0,   12.8,   13.6,   13.9,   14.8,   15.8,   17.3,   19.1,   20.2,   22.5,   22.7,   23.0,   21.3,   23.7,   24.0,   26.0,   30.4,   35.2,   37.2,   37.5,   36.0,   34.4,   33.9,   34.0,   34.0,   34.6,   35.9,   36.1,   36.4,   36.7,   37.6,   38.5,   38.8,   38.4,   36.6,   36.3,   37.0,   37.5,   37.3,   37.6,   38.4,   38.7,   39.6,   40.0,   40.1,   40.4,   40.8,   40.4,   40.5,   40.5,   40.2,   40.9,   41.4,   44.1,  999.0,  999.0
2003/04/30 15:10,  999.0,    4.6,    4.8,    2.8,    4.0,    7.9,   10.3,   11.3,   11.0,   12.4,   12.9,   13.9,   14.9,   17.8,   19.5,   21.3,   24.1,   21.6,   20.2,   22.9,   22.6,   24.1,   25.2,   31.5,   34.9,   37.5,   37.9,   37.2,   35.4,   34.2,   33.8,   34.7,   34.9,   35.8,   37.6,   38.0,   39.1,   39.0,   38.5,   38.0,   38.0,   38.3,   38.8,   39.2,   39.7,   39.8,   39.9,   40.1,   39.8,   39.8,   39.1,   38.7,   38.9,   39.2,   39.9,   40.4,   40.6,   41.1,  999.0,  999.0,  999.0,  999.0,  999.0
2003/04/30 15:20,  999.0,    5.2,    4.2,    3.0,    6.6,    9.0,    9.6,   11.1,   12.0,   12.6,   12.7,   13.8,   14.0,   16.2,   17.5,   18.1,   18.9,   20.0,   20.4,   21.2,   24.4,   25.5,   27.9,   27.8,   31.5,   35.2,   36.7,   36.9,   36.2,   35.6,   34.9,   34.7,   34.9,   35.2,   37.1,   37.4,   38.8,   39.1,   39.3,   39.3,   39.1,   39.1,   39.0,   39.0,   38.8,   39.0,   39.3,   39.0,   38.6,   38.7,   38.7,   39.6,   40.5,   41.6,   40.1,  999.0,  999.0,  999.0,  999.0,  999.0,  999.0,  999.0,  999.0
2003/04/30 15:30,  999.0,    5.8,    3.7,    2.3,    3.7,    8.6,   10.4,   12.7,   13.1,   13.1,   12.5,   12.6,   13.7,   15.9,   17.4,   17.3,   18.1,   19.6,   21.5,   23.0,   25.5,   27.3,   27.0,   27.5,   28.7,   32.0,   37.6,   39.4,   38.9,   36.2,   34.3,   33.9,   33.8,   34.1,   34.8,   36.2,   38.0,   38.3,   38.3,   38.4,   38.7,   39.2,   38.9,   38.5,   38.6,   38.6,   38.6,   40.0,   40.2,   40.9,   41.7,   42.2,  999.0,   41.3,  999.0,  999.0,  999.0,  999.0,  999.0,  999.0,  999.0,  999.0,  999.0
2003/04/30 15:40,  999.0,    5.5,    3.7,    2.4,    7.0,    9.4,   10.2,   10.6,   12.0,   11.9,   12.8,   13.5,   15.0,   16.8,   18.2,   17.9,   19.7,   22.2,   23.5,   25.4,   26.1,   24.8,   25.7,   26.8,   29.7,   33.2,   36.3,   38.9,   39.6,   38.5,   36.3,   34.8,   33.6,   33.3,   33.5,   34.6,   37.3,   38.7,   40.2,   41.0,   41.0,   40.3,   38.8,   38.0,   38.1,   37.4,   38.2,   37.6,   40.6,   41.2,   40.5,   40.5,   41.2,  999.0,   44.9,  999.0,   44.0,   43.8,  999.0,  999.0,  999.0,  999.0,  999.0
2003/04/30 15:50,  999.0,    5.1,    3.8,    2.4,    7.9,    9.8,   10.7,   11.8,   11.7,   11.7,   12.5,   13.0,   16.1,   17.4,   17.5,   17.5,   18.8,   20.5,   21.5,   21.9,   22.9,   24.2,   26.3,   28.3,   30.3,   33.6,   37.3,   39.7,   40.5,   39.9,   38.4,   36.4,   34.7,   33.8,   33.3,   34.2,   36.7,   40.0,   41.3,   41.7,   41.2,   40.7,   40.0,   40.0,   40.1,   40.6,   41.4,   41.6,   42.1,   41.9,   41.9,   42.2,   43.8,   44.9,   45.0,   45.5,   45.5,   45.7,   46.1,  999.0,  999.0,  999.0,  999.0
2003/04/30 16:00,  999.0,    5.3,    3.4,    4.3,    7.9,    8.8,    9.8,   10.3,   10.9,   11.6,   13.5,   15.0,   16.4,   18.1,   17.8,   14.8,   16.6,   19.5,   20.7,   21.6,   23.7,   28.3,  999.0,  999.0,   30.4,   32.0,   37.7,   40.8,   42.1,   42.2,   40.0,   38.0,   36.2,   34.6,   34.6,   35.5,   38.1,   41.0,   42.0,   41.9,   41.8,   41.7,   41.7,   42.1,   41.8,   41.4,   41.9,   42.7,   43.0,   43.1,   43.7,   44.5,   44.8,   45.4,   46.2,   46.7,   46.4,   47.0,   46.4,   45.4,   43.9,   44.0,  999.0
2003/04/30 16:10,  999.0,    4.5,    3.5,    2.5,    7.4,    8.4,    8.9,    9.8,   10.4,   10.7,   11.4,   13.5,   15.2,   16.8,   18.0,  999.0,  999.0,   18.9,   19.4,   21.6,   23.6,   24.3,   25.7,   27.7,   26.5,   27.7,  999.0,   35.6,   40.2,   42.4,   42.0,   40.2,   38.0,   36.3,   35.6,   35.5,   37.2,   40.6,   41.5,   41.5,   41.4,   41.7,   42.0,   42.4,   42.3,   41.6,   41.4,   42.3,   44.4,   45.1,   45.5,   46.1,   45.7,   45.6,   45.2,   45.4,   45.7,   45.6,   46.9,   46.7,   45.6,   45.2,  999.0
2003/04/30 16:20,  999.0,    6.0,    4.0,    4.0,    7.6,    9.8,   10.2,   10.6,   10.7,   11.1,   11.7,   13.9,   16.6,   17.9,   17.8,   17.7,  999.0,  999.0,   21.8,   21.8,   23.0,   24.8,   25.7,   27.6,  999.0,   25.6,   27.4,   31.4,   36.6,   40.1,   41.1,   40.7,   39.4,   37.6,   36.0,   35.6,   36.8,   40.7,   42.0,   42.8,   42.7,   42.4,   42.2,   42.2,   41.9,   41.8,   42.0,   42.8,   43.8,   44.8,   44.7,   45.0,   45.2,   45.9,   46.1,   46.6,   46.9,   47.2,   47.3,   46.9,   46.4,   46.1,   46.5
2003/04/30 16:30,  999.0,    6.7,    6.2,    7.5,   10.0,   12.0,   10.8,   10.2,   10.6,   11.0,   12.1,   13.1,   15.5,   16.1,   17.9,   18.0,  999.0,   18.9,   20.9,   22.1,   23.6,   24.4,   26.0,   25.7,   26.2,   25.6,   26.4,   28.6,   34.4,   39.9,   41.9,   42.1,   40.8,   39.2,   36.9,   35.5,   35.7,   39.3,   42.2,   42.6,   42.0,   41.5,   42.0,   42.0,   42.7,   43.4,   44.6,   45.1,   46.1,   44.6,   43.9,   43.3,   44.5,   45.7,   46.1,   46.8,   46.8,   47.0,   47.2,   47.2,   46.8,   46.7,   47.1
2003/04/30 16:40,  999.0,    5.2,    4.8,    3.8,    8.1,    8.7,    8.6,    9.3,    9.2,    9.8,   12.6,   13.7,   17.2,   15.9,   19.7,   21.3,  999.0,  999.0,   18.5,   20.4,   20.0,   22.3,   22.9,   24.8,   24.7,   26.6,   26.6,   28.2,   30.7,   36.3,   41.0,   43.3,   41.0,   39.4,   37.5,   36.4,   36.5,   38.4,   41.2,   41.2,   40.8,   41.3,   41.6,   42.4,   43.3,   44.2,   44.4,   44.3,   44.8,   45.8,  999.0,  999.0,  999.0,  999.0,  999.0,  999.0,  999.0,  999.0,  999.0,  999.0,  999.0,  999.0,  999.0
2003/04/30 16:50,  999.0,    4.7,    5.5,    4.1,    6.0,   10.7,   11.3,   10.4,   10.7,   11.0,   11.5,   12.6,   13.7,   15.5,   15.7,   17.8,  999.0,   19.3,   20.5,   20.4,   21.2,   22.4,   22.8,   24.5,   27.1,  999.0,  999.0,   29.4,   33.9,   38.8,   42.4,   43.4,   43.1,   41.2,   39.8,   38.2,   36.5,   35.8,   37.4,   39.1,   40.4,   41.2,   41.7,   42.9,   43.9,   44.8,   45.6,   46.2,   46.2,   46.5,   46.9,   47.2,   47.2,   46.3,  999.0,  999.0,  999.0,  999.0,  999.0,  999.0,  999.0,  999.0,  999.0
2003/04/30 17:00,  999.0,    5.8,    5.1,    2.8,    7.8,    9.6,   10.2,   11.1,   11.2,   10.5,   10.7,   12.4,   13.2,   14.0,   15.4,  999.0,  999.0,  999.0,  999.0,  999.0,   19.4,   19.9,   21.7,   23.4,   24.7,   28.8,   29.2,   30.5,   33.7,   36.5,   39.1,   42.9,   43.0,   41.6,   40.1,   38.7,   37.5,   36.3,   35.3,   37.0,   39.0,   39.6,   39.9,   40.9,   42.1,   43.0,   44.9,   46.2,   47.4,   48.5,   47.9,  999.0,  999.0,  999.0,  999.0,  999.0,  999.0,  999.0,  999.0,  999.0,  999.0,  999.0,  999.0
2003/04/30 17:10,  999.0,    7.0,    6.2,    3.5,    8.3,   10.0,   10.1,   10.7,    9.9,   11.2,   10.3,   11.8,   12.0,   13.4,   16.0,   16.2,  999.0,  999.0,  999.0,  999.0,   22.1,   22.3,   21.4,   22.5,   23.9,   25.7,   28.1,   30.2,   31.6,   32.3,   33.6,   36.2,   39.4,   42.4,   42.2,   40.9,   38.9,   37.9,   36.6,   37.1,   38.2,   38.8,   39.5,   39.9,   40.9,   41.7,   42.7,   45.2,   45.4,   45.5,   45.5,   44.2,   44.8,   44.8,   44.7,   45.8,   47.7,   49.5,  999.0,  999.0,  999.0,  999.0,  999.0
2003/04/30 17:20,  999.0,    5.1,    6.0,    3.5,    7.2,   10.2,    9.8,    9.7,    9.7,   10.4,   11.9,   13.5,   14.2,   15.2,   17.3,   18.6,  999.0,  999.0,  999.0,  999.0,   22.3,   22.4,   22.4,   22.4,   24.4,   26.3,   29.2,   30.5,   32.1,   32.4,   33.7,   35.8,   40.8,   45.1,   45.5,   43.7,   41.3,   39.7,   37.4,   36.8,   37.6,   38.5,   38.7,   38.9,   39.1,   39.7,   41.1,   42.7,   44.0,   44.0,   44.8,   46.0,   46.6,   47.5,   48.0,  999.0,  999.0,  999.0,  999.0,  999.0,  999.0,  999.0,  999.0
2003/04/30 17:30,  999.0,    7.5,    7.3,    5.2,    7.8,    9.6,    9.6,    7.9,    8.7,   11.0,  999.0,  999.0,   15.0,   15.8,   17.7,   18.8,  999.0,  999.0,  999.0,  999.0,   22.7,   23.0,  999.0,   22.1,   23.8,   26.6,   29.2,   29.1,   31.9,   31.5,   31.6,   34.6,   40.5,   46.0,   46.2,   44.4,   42.0,   40.0,   38.4,   36.6,   37.0,   38.7,   38.8,   38.9,   39.0,   39.0,   40.0,   41.9,   43.4,   44.1,   45.2,   45.5,   45.9,   46.1,   47.2,   48.0,   49.1,   49.8,   49.7,  999.0,  999.0,  999.0,  999.0
2003/04/30 17:40,  999.0,    7.4,    8.3,    4.8,    5.8,    8.5,    7.9,    7.6,    9.6,   11.8,   13.3,  999.0,   16.0,   17.2,   17.8,   18.2,  999.0,  999.0,  999.0,  999.0,   22.5,   23.3,  999.0,   25.1,   26.3,   27.8,   29.7,   29.3,   31.1,  999.0,   32.5,   35.3,   38.0,   42.6,   45.8,   45.3,   43.9,   42.1,   40.1,   38.3,   37.7,   38.4,   39.0,   39.6,   39.4,   40.3,   40.9,   42.1,   43.1,   44.5,   44.7,   44.8,   44.7,   46.1,   47.1,   48.2,   48.1,   50.2,  999.0,  999.0,  999.0,  999.0,  999.0
2003/04/30 17:50,  999.0,    6.4,    6.3,    4.1,    5.2,    6.4,    6.5,    8.1,    9.3,   12.1,   14.0,  999.0,   17.4,   17.7,   17.4,  999.0,  999.0,  999.0,  999.0,  999.0,   26.0,   23.1,   24.4,   23.7,   25.4,   26.8,   27.9,   27.6,  999.0,  999.0,  999.0,   33.9,   38.7,   44.0,   45.1,   44.1,   43.3,   41.8,   40.0,   38.5,   37.4,   38.0,   39.3,   40.2,   41.2,   42.1,   42.6,   43.7,   44.8,   46.0,   46.2,   46.1,   46.3,   46.7,   47.4,   48.3,   48.7,   49.0,   49.5,   48.7,  999.0,   48.1,  999.0
2003/04/30 18:00,  999.0,    6.0,    6.1,    4.8,    5.0,    6.2,    6.3,    7.3,   10.5,   12.7,   14.0,  999.0,  999.0,   16.8,   17.7,   19.9,  999.0,  999.0,  999.0,  999.0,   22.1,   22.6,  999.0,   23.7,   22.6,   25.3,   26.1,   27.4,   28.2,   27.0,   30.0,   33.4,   39.1,   43.1,   45.5,   45.4,   44.5,   43.0,   41.0,   39.5,   38.6,   39.7,   40.7,   41.9,   42.7,   43.3,   44.3,   45.1,   45.9,   46.6,   47.4,   47.6,   47.6,   47.6,   47.9,   47.6,   47.2,   47.4,   48.3,   48.7,   49.8,   49.7,   50.6
2003/04/30 18:10,  999.0,    5.4,    4.6,    2.5,    3.9,    5.7,    6.8,    9.5,   11.9,   13.1,   13.3,  999.0,  999.0,   15.9,   17.8,  999.0,  999.0,  999.0,   20.1,  999.0,  999.0,  999.0,   22.7,  999.0,  999.0,  999.0,  999.0,   27.2,   27.8,   32.1,   33.0,   34.4,   37.1,   41.1,   44.6,   46.9,   46.5,   44.3,   43.9,   42.0,   40.9,   41.2,   42.2,   43.1,   43.8,   44.4,   44.2,   44.0,   43.4,   43.1,   44.2,   45.6,   46.8,   47.0,   47.6,   47.7,   48.4,   48.4,   49.6,   50.8,   51.9,   51.8,   51.3
2003/04/30 18:20,  999.0,    5.5,    3.0,    2.3,    1.9,    5.3,    7.5,    9.9,   10.9,   12.8,   13.7,   14.1,   15.3,   15.7,  999.0,  999.0,  999.0,  999.0,  999.0,  999.0,  999.0,  999.0,   21.7,   22.6,  999.0,  999.0,   26.7,   27.5,   28.7,   29.2,   30.0,   32.2,   35.8,   39.6,   44.9,   48.7,   49.4,   46.8,   44.3,   42.5,   41.4,   41.4,   42.8,   44.0,   44.1,   43.7,   43.4,   43.4,   43.3,   43.3,   43.4,   43.8,   44.9,   46.1,   46.9,   47.8,   49.6,   49.8,   50.1,   50.9,   53.1,  999.0,  999.0
2003/04/30 18:30,  999.0,    5.9,    2.1,    2.5,    2.3,    6.0,    7.6,    9.3,   10.6,   11.8,   12.8,   13.5,   14.1,   15.6,  999.0,  999.0,  999.0,  999.0,  999.0,  999.0,  999.0,  999.0,  999.0,   22.2,   23.3,  999.0,  999.0,  999.0,  999.0,  999.0,  999.0,  999.0,  999.0,  999.0,   45.2,   48.4,   48.9,   48.0,   46.5,   44.8,   43.6,   42.9,   44.3,   45.9,   45.9,   45.4,   44.7,   44.5,   44.9,   45.1,   45.6,   46.8,   48.4,   49.6,   49.7,   50.0,   50.0,   50.3,   49.0,   50.5,   51.7,  999.0,  999.0
2003/04/30 18:40,  999.0,    5.4,    2.3,    3.5,    3.7,    6.0,    7.4,    9.6,   10.6,   11.9,   13.5,   14.0,   15.7,   16.6,  999.0,  999.0,  999.0,  999.0,  999.0,  999.0,  999.0,  999.0,  999.0,  999.0,  999.0,  999.0,  999.0,  999.0,  999.0,  999.0,  999.0,  999.0,  999.0,  999.0,   44.2,   48.1,   50.4,   50.1,   48.7,   47.3,   46.1,   44.3,   43.7,   44.8,   45.4,   45.0,   44.4,   43.9,   44.2,   45.2,   45.7,   47.1,   48.1,   49.0,   49.2,   50.1,   50.5,  999.0,  999.0,  999.0,  999.0,  999.0,  999.0
2003/04/30 18:50,  999.0,    4.6,    4.2,    2.1,    6.0,    6.6,    8.6,   10.6,   11.0,   11.9,   13.8,   14.3,   16.7,   17.3,  999.0,  999.0,  999.0,  999.0,  999.0,  999.0,  999.0,   22.1,   21.8,   22.9,  999.0,  999.0,  999.0,   28.2,  999.0,  999.0,  999.0,  999.0,  999.0,  999.0,  999.0,   46.1,   50.1,   51.6,   50.3,   48.4,   46.7,   45.7,   45.2,   45.1,   45.2,   45.5,   44.7,   44.4,   44.9,   45.8,   47.3,   48.6,   49.8,   50.3,   51.0,   51.0,   51.6,   52.0,   53.3,   54.2,  999.0,  999.0,  999.0
2003/04/30 19:00,  999.0,    6.5,    2.2,    2.4,    4.6,    6.3,    8.6,   10.0,   11.5,   11.8,   14.0,   14.5,   15.8,   16.3,  999.0,  999.0,  999.0,  999.0,  999.0,  999.0,  999.0,   20.9,   21.1,   21.3,  999.0,  999.0,  999.0,  999.0,  999.0,  999.0,  999.0,  999.0,  999.0,  999.0,  999.0,   43.1,   47.2,   50.0,   50.0,   48.6,   47.5,   46.4,   46.2,   45.4,   45.5,   45.5,   45.3,   45.5,   46.5,   47.2,   48.1,   48.4,   48.8,   48.8,   48.9,   49.7,   50.8,   51.5,   52.2,  999.0,  999.0,  999.0,  999.0
2003/04/30 19:10,  999.0,    7.1,    0.7,    2.7,    5.8,    6.7,    9.0,   11.0,   11.0,   11.6,   12.4,   15.2,   16.1,   16.7,  999.0,  999.0,  999.0,  999.0,  999.0,  999.0,   22.1,  999.0,  999.0,   21.9,  999.0,  999.0,  999.0,  999.0,  999.0,  999.0,  999.0,  999.0,  999.0,  999.0,  999.0,   43.2,   45.8,   49.3,   49.8,   48.5,   47.9,   47.2,   46.8,   46.3,   47.0,   47.7,   47.6,   47.7,   47.7,   48.0,   48.6,   49.2,   49.6,   50.2,   50.7,   50.6,   50.3,   50.5,  999.0,  999.0,  999.0,  999.0,  999.0
2003/04/30 19:20,  999.0,    6.0,    1.7,    2.4,    5.2,    6.9,    9.2,    8.2,   11.5,   12.5,  999.0,   15.3,   15.4,  999.0,  999.0,  999.0,  999.0,  999.0,  999.0,  999.0,   22.8,  999.0,   21.8,  999.0,  999.0,  999.0,  999.0,  999.0,  999.0,  999.0,  999.0,  999.0,   32.3,   35.4,   38.3,   40.7,   43.8,   47.1,   48.8,   48.7,   47.3,   46.4,   46.3,   46.8,   47.1,   48.1,   49.1,   49.0,   49.8,   49.9,   49.8,   49.9,   50.2,   50.9,   51.3,   51.6,  999.0,  999.0,  999.0,  999.0,  999.0,  999.0,  999.0
2003/04/30 19:30,  999.0,    5.7,    2.7,    3.4,    5.5,    7.9,    9.6,  999.0,   11.9,   13.1,   15.0,   15.5,   14.9,   14.9,  999.0,  999.0,  999.0,  999.0,  999.0,  999.0,  999.0,   22.7,  999.0,  999.0,  999.0,  999.0,  999.0,  999.0,  999.0,  999.0,  999.0,  999.0,  999.0,  999.0,  999.0,  999.0,  999.0,  999.0,   43.6,   46.7,   49.1,   49.3,   49.0,   48.5,   48.3,   48.3,   48.5,   48.4,   47.9,   48.2,   48.2,   48.7,   49.4,   50.1,   50.9,   51.4,   51.8,  999.0,  999.0,  999.0,  999.0,  999.0,  999.0
2003/04/30 19:40,  999.0,    5.8,    2.5,  999.0,    6.1,    8.2,    9.0,    9.7,   11.7,   12.9,   15.5,   15.0,   14.4,  999.0,  999.0,  999.0,  999.0,  999.0,  999.0,  999.0,  999.0,   23.0,  999.0,  999.0,  999.0,  999.0,  999.0,  999.0,  999.0,  999.0,  999.0,  999.0,  999.0,  999.0,  999.0,  999.0,  999.0,  999.0,   43.8,   46.1,   50.4,   52.4,   51.0,   49.3,   47.1,   45.4,   44.0,   44.3,   44.9,   47.0,   48.4,   48.3,   49.5,   50.9,   51.3,   52.3,   52.3,  999.0,  999.0,  999.0,  999.0,  999.0,  999.0
2003/04/30 19:50,  999.0,    4.8,    1.0,    1.2,    6.0,    7.8,    7.8,    9.3,   11.0,   12.3,   14.7,   13.9,   13.3,  999.0,  999.0,   20.3,  999.0,  999.0,  999.0,  999.0,  999.0,  999.0,   22.7,  999.0,  999.0,  999.0,  999.0,  999.0,  999.0,  999.0,  999.0,  999.0,  999.0,  999.0,  999.0,  999.0,  999.0,  999.0,   42.3,   46.3,   50.5,   50.9,   49.9,   48.4,   46.7,   45.6,   45.6,   46.4,   47.3,   47.6,   48.5,   49.0,   50.0,   51.0,   50.0,  999.0,  999.0,  999.0,  999.0,  999.0,  999.0,  999.0,  999.0
2003/04/30 20:00,  999.0,    4.5,    1.4,    1.6,    5.8,    7.6,  999.0,    8.1,   10.7,   11.9,   13.8,   13.1,   12.4,   15.0,  999.0,  999.0,  999.0,  999.0,  999.0,  999.0,  999.0,  999.0,  999.0,  999.0,  999.0,  999.0,  999.0,  999.0,  999.0,  999.0,  999.0,  999.0,  999.0,  999.0,  999.0,  999.0,  999.0,   38.4,   40.7,   44.1,   47.5,   48.8,   48.5,   47.3,   46.4,   44.8,   45.1,   46.3,   47.4,   48.2,   49.5,   50.5,   50.9,   50.8,   50.7,   49.6,  999.0,   50.5,  999.0,  999.0,  999.0,  999.0,  999.0
2003/04/30 20:10,  999.0,    4.0,    2.3,    3.6,    6.8,    8.0,    7.2,    8.4,   10.2,   11.6,   12.6,   11.1,   11.7,  999.0,  999.0,  999.0,  999.0,  999.0,  999.0,  999.0,  999.0,  999.0,  999.0,  999.0,  999.0,  999.0,  999.0,  999.0,  999.0,  999.0,  999.0,  999.0,  999.0,  999.0,  999.0,  999.0,   36.3,   38.4,   40.0,   42.2,   45.0,   47.3,   48.3,   47.9,   47.3,   46.7,   46.6,   47.0,   47.8,   48.3,   48.8,   49.4,   49.5,   50.0,   50.6,   50.6,   51.0,   50.7,   51.4,   52.1,   53.2,   52.9,   52.6
2003/04/30 20:20,  999.0,    4.2,    3.2,    3.4,    5.5,    6.7,    6.3,    6.6,   10.2,   10.5,   10.4,   11.2,   12.9,  999.0,  999.0,  999.0,  999.0,  999.0,  999.0,  999.0,  999.0,  999.0,  999.0,  999.0,  999.0,  999.0,  999.0,  999.0,  999.0,  999.0,  999.0,  999.0,  999.0,  999.0,  999.0,  999.0,   31.4,   34.1,   37.7,   40.9,   44.2,   47.1,   49.1,   49.6,   49.2,   48.1,   47.6,   47.8,   48.7,   49.0,   49.3,   49.3,   49.3,   49.8,   50.2,   50.8,   50.8,   51.1,   50.6,  999.0,   52.4,  999.0,  999.0
2003/04/30 20:30,  999.0,    2.8,    1.3,    1.3,    4.0,    7.6,    8.3,    7.1,    8.3,    9.8,   10.2,   11.0,  999.0,  999.0,  999.0,  999.0,  999.0,  999.0,  999.0,  999.0,  999.0,  999.0,  999.0,  999.0,  999.0,  999.0,  999.0,  999.0,  999.0,  999.0,  999.0,  999.0,  999.0,  999.0,  999.0,  999.0,  999.0,  999.0,  999.0,  999.0,   42.5,   45.8,   48.3,   49.3,   49.9,   49.6,   49.4,   49.1,   49.3,   49.6,   49.9,   49.9,   49.8,   49.2,   49.2,   49.9,   50.5,  999.0,   50.0,  999.0,  999.0,  999.0,  999.0
2003/04/30 20:40,  999.0,    4.2,    3.1,    2.7,    5.2,    5.9,    6.1,    6.7,    6.8,   10.1,   10.8,   12.8,  999.0,  999.0,  999.0,  999.0,  999.0,  999.0,  999.0,  999.0,  999.0,  999.0,  999.0,  999.0,  999.0,  999.0,  999.0,  999.0,  999.0,  999.0,  999.0,  999.0,  999.0,  999.0,  999.0,  999.0,  999.0,  999.0,  999.0,  999.0,   39.9,   42.8,   46.4,   49.0,   49.9,   50.9,   51.2,   50.9,   51.2,   51.0,   50.8,   50.5,   50.6,   50.6,   50.6,   50.8,   51.1,  999.0,  999.0,  999.0,  999.0,  999.0,  999.0
2003/04/30 20:50,  999.0,    5.4,    3.9,    3.7,    4.6,    5.3,    5.5,    7.6,    6.7,    9.9,   11.5,   13.2,  999.0,  999.0,  999.0,  999.0,  999.0,  999.0,  999.0,  999.0,  999.0,  999.0,  999.0,  999.0,  999.0,  999.0,  999.0,  999.0,  999.0,  999.0,  999.0,  999.0,  999.0,  999.0,  999.0,  999.0,  999.0,  999.0,  999.0,  999.0,  999.0,  999.0,   44.4,   48.9,   51.3,   52.7,   52.3,   52.2,   52.1,   52.6,   52.5,   52.6,   52.2,   52.5,   51.7,   51.3,   52.2,   52.1,  999.0,  999.0,  999.0,  999.0,  999.0
2003/04/30 21:00,  999.0,    4.9,    4.3,    3.2,    3.7,    4.0,    4.9,    6.8,    8.5,    9.8,   11.7,   12.9,   14.6,  999.0,  999.0,   17.1,  999.0,  999.0,  999.0,  999.0,  999.0,  999.0,  999.0,  999.0,  999.0,  999.0,  999.0,  999.0,  999.0,  999.0,  999.0,  999.0,  999.0,  999.0,  999.0,  999.0,  999.0,  999.0,  999.0,  999.0,  999.0,  999.0,  999.0,  999.0,  999.0,  999.0,   52.3,   54.0,   54.1,   53.9,   53.9,   54.0,   53.8,   53.5,   53.2,   53.1,   52.9,   53.3,   53.2,   55.1,  999.0,  999.0,  999.0
2003/04/30 21:10,  999.0,    3.3,    2.7,    2.2,    3.5,    4.4,    4.8,    6.9,    9.2,   11.3,   10.8,   12.8,   15.0,  999.0,  999.0,  999.0,  999.0,  999.0,  999.0,  999.0,  999.0,  999.0,  999.0,  999.0,  999.0,  999.0,  999.0,  999.0,  999.0,  999.0,  999.0,  999.0,  999.0,  999.0,  999.0,  999.0,  999.0,  999.0,  999.0,  999.0,  999.0,  999.0,  999.0,  999.0,  999.0,  999.0,  999.0,   53.9,   54.9,   54.7,   54.6,   54.3,   54.2,   53.8,   53.5,   53.3,   52.8,   53.3,   52.1,  999.0,  999.0,  999.0,  999.0
2003/04/30 21:20,  999.0,    4.6,    5.1,    2.0,    3.8,    4.3,    6.0,    7.6,    9.7,   10.9,   10.4,   12.8,  999.0,  999.0,  999.0,  999.0,  999.0,  999.0,  999.0,  999.0,  999.0,  999.0,  999.0,  999.0,  999.0,  999.0,  999.0,  999.0,  999.0,  999.0,  999.0,  999.0,  999.0,  999.0,  999.0,  999.0,  999.0,  999.0,  999.0,  999.0,  999.0,  999.0,  999.0,  999.0,  999.0,  999.0,  999.0,  999.0,  999.0,  999.0,  999.0,   55.2,   54.7,   54.8,  999.0,  999.0,  999.0,  999.0,  999.0,  999.0,  999.0,  999.0,  999.0
2003/04/30 21:30,  999.0,    5.5,    2.9,    2.1,    3.7,    4.7,    6.6,    8.1,    8.0,    9.5,   10.4,   13.5,  999.0,  999.0,  999.0,  999.0,  999.0,  999.0,  999.0,  999.0,  999.0,  999.0,  999.0,  999.0,  999.0,  999.0,  999.0,  999.0,  999.0,  999.0,  999.0,  999.0,  999.0,  999.0,  999.0,  999.0,  999.0,  999.0,  999.0,  999.0,  999.0,  999.0,  999.0,  999.0,  999.0,  999.0,  999.0,  999.0,  999.0,  999.0,  999.0,  999.0,  999.0,  999.0,  999.0,  999.0,  999.0,  999.0,  999.0,  999.0,  999.0,  999.0,  999.0
2003/04/30 21:40,  999.0,    6.6,    5.0,    1.7,    4.5,    5.8,    6.8,    8.5,    7.9,    8.7,    9.1,  999.0,  999.0,  999.0,  999.0,  999.0,  999.0,  999.0,  999.0,  999.0,  999.0,  999.0,  999.0,  999.0,  999.0,  999.0,  999.0,  999.0,  999.0,  999.0,  999.0,  999.0,  999.0,  999.0,  999.0,  999.0,  999.0,  999.0,  999.0,  999.0,  999.0,  999.0,  999.0,  999.0,  999.0,  999.0,  999.0,  999.0,  999.0,  999.0,  999.0,  999.0,  999.0,  999.0,  999.0,  999.0,  999.0,  999.0,  999.0,  999.0,  999.0,  999.0,  999.0
2003/04/30 21:50,  999.0,    6.4,    1.6,    0.8,    4.4,    5.3,    6.9,    8.0,    8.6,    9.1,   10.3,   12.2,  999.0,  999.0,  999.0,  999.0,  999.0,  999.0,  999.0,  999.0,  999.0,  999.0,  999.0,  999.0,  999.0,  999.0,  999.0,  999.0,  999.0,  999.0,  999.0,  999.0,  999.0,  999.0,  999.0,  999.0,  999.0,  999.0,  999.0,  999.0,  999.0,  999.0,  999.0,  999.0,  999.0,  999.0,  999.0,  999.0,  999.0,  999.0,  999.0,  999.0,  999.0,  999.0,  999.0,   55.5,   54.6,   53.9,  999.0,  999.0,  999.0,  999.0,  999.0
2003/04/30 22:00,  999.0,    4.0,   -0.1,    0.6,    1.6,    4.2,    5.9,    7.2,    8.0,    9.4,   10.2,  999.0,   12.2,   14.2,  999.0,  999.0,  999.0,  999.0,  999.0,  999.0,  999.0,  999.0,  999.0,  999.0,   24.5,  999.0,  999.0,  999.0,  999.0,  999.0,  999.0,  999.0,  999.0,  999.0,  999.0,  999.0,  999.0,  999.0,  999.0,  999.0,  999.0,  999.0,  999.0,  999.0,  999.0,  999.0,  999.0,  999.0,  999.0,  999.0,  999.0,  999.0,  999.0,  999.0,  999.0,  999.0,  999.0,  999.0,  999.0,  999.0,  999.0,  999.0,  999.0
2003/04/30 22:10,  999.0,    3.6,    1.9,    0.9,    0.9,    4.4,    6.4,    7.8,    8.6,   10.1,   11.0,  999.0,   11.7,   14.7,   17.1,  999.0,  999.0,  999.0,  999.0,  999.0,  999.0,  999.0,  999.0,  999.0,  999.0,  999.0,  999.0,  999.0,  999.0,  999.0,  999.0,  999.0,  999.0,  999.0,  999.0,  999.0,  999.0,  999.0,  999.0,  999.0,  999.0,  999.0,  999.0,  999.0,  999.0,  999.0,  999.0,  999.0,  999.0,  999.0,  999.0,  999.0,  999.0,  999.0,  999.0,  999.0,  999.0,  999.0,  999.0,  999.0,  999.0,  999.0,  999.0
2003/04/30 22:20,  999.0,    3.2,    0.6,   -0.5,   -0.2,    3.0,    5.2,    7.4,    8.3,    9.7,   10.6,  999.0,   13.0,  999.0,  999.0,  999.0,  999.0,  999.0,  999.0,  999.0,  999.0,  999.0,  999.0,  999.0,  999.0,  999.0,  999.0,  999.0,  999.0,  999.0,  999.0,  999.0,  999.0,  999.0,  999.0,  999.0,  999.0,  999.0,  999.0,  999.0,  999.0,  999.0,  999.0,  999.0,  999.0,  999.0,  999.0,  999.0,  999.0,  999.0,  999.0,  999.0,  999.0,  999.0,  999.0,  999.0,  999.0,  999.0,  999.0,  999.0,  999.0,  999.0,  999.0
2003/04/30 22:30,  999.0,    2.4,    1.2,    0.9,    0.9,    2.5,    5.8,    7.9,    9.0,   10.1,    9.8,  999.0,   13.7,   15.4,  999.0,  999.0,  999.0,  999.0,  999.0,  999.0,  999.0,  999.0,  999.0,  999.0,  999.0,  999.0,  999.0,  999.0,  999.0,  999.0,  999.0,  999.0,  999.0,  999.0,  999.0,  999.0,  999.0,  999.0,  999.0,  999.0,  999.0,  999.0,  999.0,  999.0,  999.0,  999.0,  999.0,  999.0,  999.0,  999.0,  999.0,  999.0,  999.0,  999.0,  999.0,  999.0,  999.0,  999.0,  999.0,  999.0,  999.0,  999.0,  999.0
2003/04/30 22:40,  999.0,    1.8,    1.5,    1.3,    1.9,    2.1,    4.9,    7.9,    9.0,   11.2,   11.8,   12.8,   15.6,  999.0,  999.0,  999.0,  999.0,  999.0,  999.0,  999.0,  999.0,  999.0,  999.0,  999.0,  999.0,  999.0,  999.0,  999.0,  999.0,  999.0,  999.0,  999.0,  999.0,  999.0,  999.0,  999.0,  999.0,  999.0,  999.0,  999.0,  999.0,  999.0,  999.0,  999.0,  999.0,  999.0,  999.0,  999.0,  999.0,  999.0,  999.0,  999.0,  999.0,  999.0,  999.0,  999.0,  999.0,  999.0,  999.0,  999.0,  999.0,  999.0,  999.0
2003/04/30 22:50,  999.0,    2.1,    0.9,    1.9,    4.4,    4.3,    6.3,    8.1,   10.3,   10.1,    8.1,  999.0,  999.0,  999.0,  999.0,  999.0,  999.0,  999.0,  999.0,  999.0,  999.0,  999.0,  999.0,  999.0,  999.0,  999.0,  999.0,  999.0,  999.0,  999.0,  999.0,  999.0,  999.0,  999.0,  999.0,  999.0,  999.0,  999.0,  999.0,  999.0,  999.0,  999.0,  999.0,  999.0,  999.0,  999.0,  999.0,  999.0,  999.0,  999.0,  999.0,  999.0,  999.0,  999.0,  999.0,  999.0,  999.0,  999.0,  999.0,  999.0,  999.0,  999.0,  999.0
2003/04/30 23:00,  999.0,    2.1,    0.5,    0.6,    0.4,    2.4,    3.6,    7.8,    6.9,  999.0,  999.0,  999.0,  999.0,  999.0,  999.0,  999.0,  999.0,  999.0,  999.0,  999.0,  999.0,  999.0,  999.0,  999.0,  999.0,  999.0,  999.0,  999.0,  999.0,  999.0,  999.0,  999.0,  999.0,  999.0,  999.0,  999.0,  999.0,  999.0,  999.0,  999.0,  999.0,  999.0,  999.0,  999.0,  999.0,  999.0,  999.0,  999.0,  999.0,  999.0,  999.0,  999.0,  999.0,  999.0,  999.0,  999.0,  999.0,  999.0,  999.0,  999.0,  999.0,  999.0,  999.0
2003/04/30 23:10,  999.0,    1.6,    0.2,    0.2,    0.9,    3.1,    3.9,    7.3,    7.6,   11.3,   12.2,    8.0,  999.0,  999.0,  999.0,  999.0,  999.0,  999.0,  999.0,  999.0,  999.0,  999.0,  999.0,  999.0,  999.0,  999.0,  999.0,  999.0,  999.0,  999.0,  999.0,  999.0,  999.0,  999.0,  999.0,  999.0,  999.0,  999.0,  999.0,  999.0,  999.0,  999.0,  999.0,  999.0,  999.0,  999.0,  999.0,  999.0,  999.0,  999.0,  999.0,  999.0,  999.0,  999.0,  999.0,  999.0,  999.0,  999.0,  999.0,  999.0,  999.0,  999.0,  999.0
2003/04/30 23:20,  999.0,    3.8,    1.5,    2.3,    4.1,    7.1,    7.9,    8.3,   10.7,   12.8,   12.8,   12.6,   13.7,  999.0,  999.0,  999.0,  999.0,  999.0,   19.0,   18.6,   18.5,   18.5,  999.0,  999.0,  999.0,  999.0,  999.0,  999.0,  999.0,  999.0,  999.0,  999.0,  999.0,  999.0,  999.0,  999.0,  999.0,  999.0,  999.0,  999.0,  999.0,  999.0,  999.0,  999.0,  999.0,  999.0,  999.0,  999.0,  999.0,  999.0,  999.0,  999.0,  999.0,  999.0,  999.0,  999.0,  999.0,  999.0,  999.0,  999.0,  999.0,  999.0,  999.0
2003/04/30 23:30,  999.0,    1.6,    0.5,    0.8,    2.4,    5.3,    5.4,    5.1,    9.7,   13.2,   13.5,   13.2,  999.0,   15.4,   18.0,  999.0,  999.0,  999.0,   19.2,   18.2,   17.6,   18.2,  999.0,  999.0,  999.0,  999.0,  999.0,  999.0,  999.0,  999.0,  999.0,  999.0,  999.0,  999.0,  999.0,  999.0,  999.0,  999.0,  999.0,  999.0,  999.0,  999.0,  999.0,  999.0,  999.0,  999.0,  999.0,  999.0,  999.0,  999.0,  999.0,  999.0,  999.0,  999.0,  999.0,  999.0,  999.0,  999.0,  999.0,  999.0,  999.0,  999.0,  999.0
2003/04/30 23:40,  999.0,    1.4,   -0.5,    0.7,    3.3,    7.0,    8.8,    5.2,    9.9,   12.2,   14.2,   15.1,  999.0,  999.0,  999.0,  999.0,  999.0,  999.0,   19.2,   18.5,   18.1,  999.0,  999.0,  999.0,  999.0,  999.0,  999.0,  999.0,  999.0,  999.0,  999.0,  999.0,  999.0,  999.0,  999.0,  999.0,  999.0,  999.0,  999.0,  999.0,  999.0,  999.0,  999.0,  999.0,  999.0,  999.0,  999.0,  999.0,  999.0,  999.0,  999.0,  999.0,  999.0,  999.0,  999.0,  999.0,  999.0,  999.0,  999.0,  999.0,  999.0,  999.0,  999.0
2003/04/30 23:50,  999.0,    1.1,    0.2,    0.5,    2.1,    6.1,    4.9,    3.1,    9.9,   11.6,   14.4,   15.8,  999.0,   15.8,  999.0,  999.0,  999.0,   17.4,   18.0,   17.7,   17.7,  999.0,  999.0,   25.7,  999.0,  999.0,  999.0,   28.0,  999.0,  999.0,  999.0,  999.0,  999.0,  999.0,  999.0,  999.0,  999.0,  999.0,  999.0,  999.0,  999.0,  999.0,  999.0,  999.0,  999.0,  999.0,  999.0,  999.0,  999.0,  999.0,  999.0,  999.0,  999.0,  999.0,  999.0,  999.0,  999.0,  999.0,  999.0,  999.0,  999.0,  999.0,  999.0
